FW6434 Weather Reports


time (UTC)temp
C
wind
direction
speed
KPH
gust
KPH
rain 1hr
cm
rain 24hr
cm
rain mn
cm
humidity
%
barometer
mb
20260508174123 12 184 0.0 0.0 0.00 0.00 0.84 83 1017.6
20260508174110 12 181 0.0 0.0 0.00 0.00 0.84 83 1017.6
20260508174059 12 182 0.0 0.0 0.00 0.00 0.84 83 1017.4
20260508174043 12 192 0.0 0.0 0.00 0.00 0.84 83 1017.5
20260508173807 12 181 0.0 0.0 0.00 0.00 0.84 83 1017.6
20260508173531 12 182 0.0 0.0 0.00 0.00 0.84 84 1017.7
20260508173447 12 165 0.0 0.0 0.00 0.00 0.84 84 1017.5
20260508173347 12 182 0.0 0.0 0.00 0.00 0.84 84 1017.6
20260508173248 12 177 0.0 0.0 0.00 0.00 0.84 83 1017.4
20260508173225 12 172 0.0 0.0 0.00 0.00 0.84 83 1017.4
20260508173210 12 184 0.0 0.0 0.00 0.00 0.84 83 1017.5
20260508173155 12 183 0.0 0.0 0.00 0.00 0.84 83 1017.5
20260508173145 12 182 0.0 0.0 0.00 0.00 0.84 83 1017.5
20260508172908 12 183 0.0 0.0 0.00 0.00 0.84 83 1017.4
20260508172533 12 182 0.0 0.0 0.00 0.00 0.84 83 1017.4
20260508172523 12 185 0.0 0.0 0.00 0.00 0.84 83 1017.5
20260508172507 12 182 0.0 0.0 0.00 0.00 0.84 83 1017.3
20260508172147 12 184 0.0 0.0 0.00 0.00 0.84 83 1017.4
20260508172047 12 181 0.0 0.0 0.00 0.00 0.84 83 1017.2
20260508172031 12 180 0.0 0.0 0.00 0.00 0.84 83 1017.2
20260508172013 12 181 0.0 0.0 0.00 0.00 0.84 83 1017.3
20260508171958 12 182 0.0 0.0 0.00 0.00 0.84 83 1017.3
20260508171941 12 185 0.0 0.0 0.00 0.00 0.84 83 1017.3
20260508171926 12 185 0.0 0.0 0.00 0.00 0.84 83 1017.5
20260508171857 12 184 0.0 0.0 0.00 0.00 0.84 82 1017.3
20260508171847 12 184 0.0 0.0 0.00 0.00 0.84 82 1017.2
20260508171032 12 184 0.0 0.0 0.00 0.00 0.84 82 1017.5
20260508170947 12 185 0.0 0.0 0.00 0.00 0.84 82 1017.4
20260508170847 12 185 0.0 0.0 0.00 0.00 0.84 82 1017.3
20260508170747 12 185 0.0 0.0 0.00 0.00 0.84 81 1017.3
20260508170647 12 184 0.0 0.0 0.00 0.00 0.84 81 1017.4
20260508170631 12 184 0.0 0.0 0.00 0.00 0.84 81 1017.3
20260508170608 12 180 0.0 0.0 0.00 0.00 0.84 81 1017.2
20260508170558 12 165 0.0 0.0 0.00 0.00 0.84 81 1017.3
20260508170541 12 187 0.0 0.0 0.00 0.00 0.84 81 1017.5
20260508170307 12 175 0.0 0.0 0.00 0.00 0.84 81 1017.5
20260508170251 12 184 0.0 0.0 0.00 0.00 0.84 81 1017.3
20260508165947 12 185 0.0 0.0 0.00 0.00 0.84 81 1017.3
20260508165835 12 185 0.0 0.0 0.00 0.00 0.84 81 1017.4
20260508165736 12 185 0.0 0.0 0.00 0.00 0.84 80 1017.3
20260508165635 12 182 0.0 0.0 0.00 0.00 0.84 80 1017.4
20260508165536 12 184 0.0 0.0 0.00 0.00 0.84 80 1017.1
20260508165435 12 185 0.0 0.0 0.00 0.00 0.84 80 1017.1
20260508165335 12 182 0.0 0.0 0.00 0.00 0.84 80 1017.1
20260508165235 12 182 0.0 0.0 0.00 0.00 0.84 80 1017.5
20260508165135 12 183 0.0 0.0 0.00 0.00 0.84 80 1017.3
20260508165034 12 183 0.0 0.0 0.00 0.00 0.84 80 1017.2
20260508164212 12 179 0.0 0.0 0.00 0.00 0.84 81 1017.2
20260508164112 12 178 0.0 0.0 0.00 0.00 0.84 81 1017.3
20260508164058 12 177 0.0 0.0 0.00 0.00 0.84 81 1017.3
20260508164012 13 181 0.0 0.0 0.00 0.00 0.84 81 1017.4
20260508163911 13 173 0.0 0.0 0.00 0.00 0.84 81 1017.3
20260508163811 13 184 0.0 0.0 0.00 0.00 0.84 82 1017.3
20260508163713 13 184 0.0 0.0 0.00 0.00 0.84 82 1017.1
20260508163612 13 183 0.0 0.0 0.00 0.00 0.84 82 1017.2
20260508163559 13 183 0.0 0.0 0.00 0.00 0.84 82 1017.2
20260508163548 13 184 0.0 0.0 0.00 0.00 0.84 82 1017.5
20260508163533 13 184 0.0 0.0 0.00 0.00 0.84 81 1017.5
20260508163518 13 183 0.0 0.0 0.00 0.00 0.84 81 1017.5
20260508163240 12 182 0.0 0.0 0.00 0.00 0.84 81 1017.2
20260508163229 12 182 0.0 0.0 0.00 0.00 0.84 81 1017.2
20260508162912 12 182 0.0 0.0 0.00 0.00 0.84 81 1017.3
20260508162852 13 181 0.0 0.0 0.00 0.00 0.84 81 1017.3
20260508162844 12 182 0.0 0.0 0.00 0.00 0.84 81 1017.4
20260508162829 12 176 0.0 0.0 0.00 0.00 0.84 80 1017.5
20260508162812 13 181 0.0 0.0 0.00 0.00 0.84 81 1017.3
20260508162512 12 183 0.0 0.0 0.00 0.00 0.84 81 1017.3
20260508162412 12 183 0.0 0.0 0.00 0.00 0.84 81 1017.3
20260508162312 12 184 0.0 0.0 0.00 0.00 0.84 81 1017.4
20260508162213 12 183 0.0 0.0 0.00 0.00 0.84 81 1017.3
20260508162113 12 185 0.0 0.0 0.00 0.00 0.84 81 1017.4
20260508162101 12 185 0.0 0.0 0.00 0.00 0.84 81 1017.4
20260508162049 12 185 0.0 0.0 0.00 0.00 0.84 81 1017.5
20260508162032 12 185 0.0 0.0 0.00 0.00 0.84 81 1017.3
20260508161713 12 185 0.0 0.0 0.00 0.00 0.84 81 1017.4
20260508161655 12 185 0.0 0.0 0.00 0.00 0.84 81 1017.2
20260508161642 12 185 0.0 0.0 0.00 0.00 0.84 81 1017.2
20260508161632 12 185 0.0 0.0 0.00 0.00 0.84 81 1017.4
20260508161312 12 182 0.0 0.0 0.00 0.00 0.84 81 1017.4
20260508161211 12 175 0.0 0.0 0.00 0.00 0.84 81 1017.5
20260508161113 12 179 0.0 0.0 0.00 0.00 0.84 81 1017.3
20260508161057 12 182 0.0 0.0 0.00 0.00 0.84 81 1017.3
20260508161012 12 172 0.0 0.0 0.00 0.00 0.84 81 1017.5
20260508160913 12 182 0.0 0.0 0.00 0.00 0.84 81 1017.4
20260508160812 12 185 0.0 0.0 0.00 0.00 0.84 81 1017.4
20260508160711 12 181 0.0 0.0 0.00 0.00 0.84 81 1017.3
20260508160612 12 186 0.0 0.0 0.00 0.00 0.84 81 1017.3
20260508160556 12 186 0.0 0.0 0.00 0.00 0.84 81 1017.3
20260508160512 12 186 0.0 0.0 0.00 0.00 0.84 81 1017.6
20260508160444 12 184 0.0 0.0 0.00 0.00 0.84 81 1017.5
20260508160429 12 182 0.0 0.0 0.00 0.00 0.84 81 1017.7
20260508160412 12 185 0.0 0.0 0.00 0.00 0.84 81 1017.3
20260508160356 12 185 0.0 0.0 0.00 0.00 0.84 81 1017.4
20260508160345 12 185 0.0 0.0 0.00 0.00 0.84 81 1017.4
20260508160332 12 188 0.0 0.0 0.00 0.00 0.84 81 1017.3
20260508155835 12 184 0.0 0.0 0.00 0.00 0.84 82 1017.3
20260508155603 12 183 0.0 0.0 0.00 0.00 0.84 82 1017.2
20260508155552 12 184 0.0 0.0 0.00 0.00 0.84 82 1017.3
20260508155537 12 185 0.0 0.0 0.00 0.00 0.84 82 1017.4
20260508155212 13 183 0.0 0.0 0.00 0.00 0.84 83 1017.3
20260508155111 12 182 0.0 0.0 0.00 0.00 0.84 83 1017.3
20260508155057 12 181 0.0 0.0 0.00 0.00 0.84 83 1017.3
20260508155012 12 183 0.0 0.0 0.00 0.00 0.84 83 1017.4
20260508154901 12 177 0.0 0.0 0.00 0.00 0.84 82 1017.3
20260508154843 12 165 0.0 0.0 0.00 0.00 0.84 82 1017.4
20260508154826 12 184 0.0 0.0 0.00 0.00 0.84 81 1017.5
20260508154600 12 181 0.0 0.0 0.00 0.00 0.84 81 1017.1
20260508154527 13 183 0.0 0.0 0.00 0.00 0.84 80 1017.5
20260508154523 13 169 0.0 0.0 0.00 0.00 0.84 80 1017.3
20260508154518 13 182 0.0 0.0 0.00 0.00 0.84 80 1017.3
20260508154512 12 182 0.0 0.0 0.00 0.00 0.84 81 1017.6
20260508154456 12 169 0.0 0.0 0.00 0.00 0.84 81 1017.5
20260508154440 12 187 0.0 0.0 0.00 0.00 0.84 81 1017.3
20260508154424 12 185 0.0 0.0 0.00 0.00 0.84 81 1017.3
20260508154403 12 185 0.0 0.0 0.00 0.00 0.84 81 1017.4
20260508154346 13 182 0.0 0.0 0.00 0.00 0.84 81 1017.4
20260508154110 12 180 0.0 0.0 0.00 0.00 0.84 81 1017.5
20260508154056 13 180 0.0 0.0 0.00 0.00 0.84 81 1017.3
20260508154039 13 169 0.0 0.0 0.00 0.00 0.84 80 1017.3
20260508153813 13 167 0.0 0.0 0.00 0.00 0.84 81 1017.5
20260508153757 13 167 0.0 0.0 0.00 0.00 0.84 80 1017.3
20260508153741 13 185 0.0 0.0 0.00 0.00 0.84 81 1017.4
20260508153252 13 182 0.0 0.0 0.00 0.00 0.84 80 1017.3
20260508153234 13 183 0.0 0.0 0.00 0.00 0.84 80 1017.3
20260508153218 13 179 0.0 0.0 0.00 0.00 0.84 80 1017.5
20260508152942 13 190 0.0 0.0 0.00 0.00 0.84 80 1017.6
20260508152715 13 190 0.0 0.0 0.00 0.00 0.84 80 1017.3
20260508152700 13 190 0.0 0.0 0.00 0.00 0.84 80 1017.2
20260508152644 13 191 0.0 0.0 0.00 0.00 0.84 80 1017.5
20260508152408 13 183 0.0 0.0 0.00 0.00 0.84 80 1017.4
20260508152351 13 182 0.0 0.0 0.00 0.00 0.84 80 1017.3
20260508152123 13 185 0.0 0.0 0.00 0.00 0.84 79 1017.4
20260508152106 13 188 0.0 0.0 0.00 0.00 0.84 79 1017.3
20260508151842 13 187 0.0 0.0 0.00 0.00 0.84 80 1017.5
20260508151826 13 186 0.0 0.0 0.00 0.00 0.84 80 1017.5
20260508151809 13 183 0.0 0.0 0.00 0.00 0.84 80 1017.5
20260508151500 13 189 0.0 0.0 0.00 0.00 0.84 80 1017.5
20260508151402 13 188 0.0 0.0 0.00 0.00 0.84 80 1017.4
20260508151351 13 187 0.0 0.0 0.00 0.00 0.84 81 1017.6
20260508151341 13 190 0.0 0.0 0.00 0.00 0.84 81 1017.3
20260508151326 13 189 0.0 0.0 0.00 0.00 0.84 81 1017.4
20260508151309 13 187 0.0 0.0 0.00 0.00 0.84 81 1017.6
20260508151001 13 186 0.0 0.0 0.00 0.00 0.84 81 1017.4
20260508150937 12 182 0.0 0.0 0.00 0.00 0.84 81 1017.4
20260508150920 12 184 0.0 0.0 0.00 0.00 0.84 81 1017.5
20260508150601 13 171 0.0 0.0 0.00 0.00 0.84 81 1017.3
20260508150500 13 180 0.0 0.0 0.00 0.00 0.84 81 1017.3
20260508150419 13 185 0.0 0.0 0.00 0.00 0.84 81 1017.2
20260508150412 13 179 0.0 0.0 0.00 0.00 0.84 81 1017.4
20260508150356 13 194 0.0 0.0 0.00 0.00 0.84 82 1017.5
20260508150340 13 198 0.0 0.0 0.00 0.00 0.84 81 1017.4
20260508150322 13 185 0.0 0.0 0.00 0.00 0.84 81 1017.2
20260508150001 13 181 0.0 1.6 0.00 0.00 0.84 82 1017.4
20260508145900 13 183 0.0 1.6 0.00 0.00 0.84 81 1017.2
20260508145759 13 176 0.0 1.6 0.00 0.00 0.84 81 1017.3
20260508145701 13 182 0.0 1.6 0.00 0.00 0.84 81 1017.2
20260508145600 13 176 0.0 1.6 0.00 0.00 0.84 81 1017.3
20260508145500 13 161 0.0 1.6 0.00 0.00 0.84 81 1017.3
20260508145401 13 173 0.0 1.6 0.00 0.00 0.84 81 1017.4
20260508145306 13 191 0.0 1.6 0.00 0.00 0.84 81 1017.4
20260508145246 13 162 0.0 1.6 0.00 0.00 0.84 81 1017.3
20260508145223 13 154 0.0 1.6 0.00 0.00 0.84 81 1017.3
20260508144901 13 184 0.0 0.0 0.00 0.00 0.84 81 1017.4
20260508144801 13 188 0.0 0.0 0.00 0.00 0.84 81 1017.4
20260508144745 13 190 0.0 0.0 0.00 0.00 0.84 82 1017.3
20260508144722 13 197 0.0 0.0 0.00 0.00 0.84 82 1017.3
20260508144401 13 192 0.0 3.2 0.00 0.00 0.84 82 1017.6
20260508144339 13 189 0.0 3.2 0.00 0.00 0.84 82 1017.2
20260508144323 13 190 0.0 3.2 0.00 0.00 0.84 82 1017.5
20260508144300 13 191 0.0 3.2 0.00 0.00 0.84 82 1017.4
20260508144243 13 190 0.0 3.2 0.00 0.00 0.84 82 1017.4
20260508143700 13 174 0.0 3.2 0.00 0.00 0.84 82 1017.3
20260508143638 13 178 0.0 3.2 0.00 0.00 0.84 82 1017.1
20260508143621 13 185 0.0 3.2 0.00 0.00 0.84 82 1017.2
20260508143300 13 183 0.0 4.8 0.00 0.00 0.84 82 1017.3
20260508143223 13 177 0.0 4.8 0.00 0.00 0.84 81 1017.3
20260508143201 13 175 0.0 4.8 0.00 0.00 0.84 82 1017.1
20260508143143 13 156 0.0 4.8 0.00 0.00 0.84 81 1017.2
20260508143128 13 183 0.0 4.8 0.00 0.00 0.84 81 1017.4
20260508143112 13 183 0.0 4.8 0.00 0.00 0.84 81 1017.4
20260508143057 13 148 0.0 4.8 0.00 0.00 0.84 80 1017.4
20260508142830 13 182 0.0 4.8 0.00 0.00 0.84 81 1017.4
20260508142815 13 178 0.0 4.8 0.00 0.00 0.84 81 1017.4
20260508142759 13 162 0.0 4.8 0.00 0.00 0.84 81 1017.5
20260508142743 13 131 0.0 0.0 0.00 0.00 0.84 80 1017.3
20260508142256 13 162 0.0 0.0 0.00 0.00 0.84 82 1017.5
20260508142239 13 189 0.0 0.0 0.00 0.00 0.84 84 1017.4
20260508142223 13 184 0.0 0.0 0.00 0.00 0.84 84 1017.3
20260508141948 12 182 0.0 0.0 0.00 0.00 0.84 85 1017.4
20260508141721 12 190 0.0 0.0 0.00 0.00 0.84 84 1017.4
20260508141437 12 154 0.0 0.0 0.00 0.00 0.84 85 1017.4
20260508141421 12 174 0.0 0.0 0.00 0.00 0.84 85 1017.3
20260508141138 12 178 0.0 0.0 0.00 0.00 0.84 85 1017.3
20260508141121 12 165 0.0 0.0 0.00 0.00 0.84 85 1017.6
20260508140806 12 180 0.0 0.0 0.00 0.00 0.84 86 1017.5
20260508140701 12 185 0.0 0.0 0.00 0.00 0.84 86 1017.4
20260508140600 12 180 0.0 0.0 0.00 0.00 0.84 86 1017.5
20260508140537 12 174 0.0 0.0 0.00 0.00 0.84 86 1017.5
20260508140522 12 119 0.0 0.0 0.00 0.00 0.84 85 1017.4
20260508140213 12 190 0.0 4.8 0.00 0.00 0.84 86 1017.3
20260508140151 12 143 0.0 4.8 0.00 0.00 0.84 86 1017.3
20260508140119 12 181 0.0 4.8 0.00 0.00 0.84 86 1017.2
20260508135801 12 175 0.0 4.8 0.00 0.00 0.84 86 1017.4
20260508135700 12 181 0.0 4.8 0.00 0.00 0.84 86 1017.4
20260508135600 12 174 0.0 4.8 0.00 0.00 0.84 86 1017.5
20260508135500 12 176 0.0 4.8 0.00 0.00 0.84 86 1017.5
20260508135401 12 192 0.0 4.8 0.00 0.00 0.84 86 1017.4
20260508135305 12 235 1.6 4.8 0.00 0.00 0.84 86 1017.3
20260508135202 12 190 0.0 1.6 0.00 0.00 0.84 86 1017.5
20260508135125 12 188 0.0 1.6 0.00 0.00 0.84 86 1017.5
20260508135108 12 185 0.0 1.6 0.00 0.00 0.84 85 1017.6
20260508135051 12 150 0.0 1.6 0.00 0.00 0.84 85 1017.5
20260508135036 13 198 0.0 1.6 0.00 0.00 0.84 85 1017.4
20260508134549 12 185 0.0 1.6 0.00 0.00 0.84 86 1017.4
20260508134448 12 152 0.0 1.6 0.00 0.00 0.84 86 1017.5
20260508134425 12 166 0.0 1.6 0.00 0.00 0.84 86 1017.2
20260508134408 12 162 0.0 1.6 0.00 0.00 0.84 85 1017.7
20260508134048 12 169 0.0 1.6 0.00 0.00 0.84 86 1017.4
20260508133948 12 111 0.0 0.0 0.00 0.00 0.84 86 1017.5
20260508133849 12 185 0.0 1.6 0.00 0.00 0.84 86 1017.3
20260508133749 12 187 0.0 1.6 0.00 0.00 0.84 86 1017.2
20260508133648 12 173 0.0 1.6 0.00 0.00 0.84 86 1017.4
20260508133620 12 185 0.0 1.6 0.00 0.00 0.84 86 1017.4
20260508133603 12 181 0.0 1.6 0.00 0.00 0.84 87 1017.3
20260508133547 12 157 0.0 1.6 0.00 0.00 0.84 87 1017.3
20260508133530 12 182 0.0 1.6 0.00 0.00 0.84 87 1017.4
20260508133514 12 183 0.0 1.6 0.00 0.00 0.84 87 1017.4
20260508133248 12 177 0.0 1.6 0.00 0.00 0.84 87 1017.4
20260508133230 12 97 0.0 1.6 0.00 0.00 0.84 87 1017.4
20260508132649 12 184 0.0 0.0 0.00 0.00 0.84 87 1017.3
20260508132625 12 186 0.0 1.6 0.00 0.00 0.84 88 1017.4
20260508132609 12 184 0.0 1.6 0.00 0.00 0.84 88 1017.5
20260508132332 12 169 0.0 1.6 0.00 0.00 0.84 87 1017.4
20260508132316 12 178 0.0 1.6 0.00 0.00 0.84 87 1017.3
20260508132049 12 178 0.0 1.6 0.00 0.00 0.84 87 1017.8
20260508131949 12 183 0.0 1.6 0.00 0.00 0.84 87 1017.2
20260508131925 12 183 0.0 1.6 0.00 0.00 0.84 87 1017.6
20260508131909 12 178 0.0 1.6 0.00 0.00 0.84 86 1017.6
20260508131613 12 150 0.0 0.0 0.00 0.00 0.84 85 1017.3
20260508131556 12 177 0.0 0.0 0.00 0.00 0.84 85 1017.5
20260508131236 12 186 0.0 0.0 0.00 0.00 0.84 85 1017.4
20260508131136 12 184 0.0 0.0 0.00 0.00 0.84 85 1017.7
20260508131120 12 161 0.0 0.0 0.00 0.00 0.84 85 1017.6
20260508131112 12 182 0.0 0.0 0.00 0.00 0.84 85 1017.6
20260508131056 12 183 0.0 0.0 0.00 0.00 0.84 85 1017.6
20260508130736 12 184 0.0 0.0 0.00 0.00 0.84 86 1017.6
20260508130636 12 184 0.0 0.0 0.00 0.00 0.84 86 1017.6
20260508130544 12 186 0.0 0.0 0.00 0.00 0.84 86 1017.7
20260508130537 12 188 0.0 0.0 0.00 0.00 0.84 86 1017.7
20260508130437 12 191 0.0 0.0 0.00 0.00 0.84 86 1017.6
20260508130337 12 192 0.0 0.0 0.00 0.00 0.84 86 1017.7
20260508130322 12 183 0.0 1.6 0.00 0.00 0.84 87 1017.4
20260508130312 12 218 0.0 0.0 0.00 0.00 0.84 86 1017.5
20260508130257 12 184 0.0 0.0 0.00 0.00 0.84 87 1017.6
20260508130240 12 183 0.0 0.0 0.00 0.00 0.84 87 1017.6
20260508130232 12 181 0.0 0.0 0.00 0.00 0.84 87 1017.6
20260508130216 12 183 0.0 0.0 0.00 0.00 0.84 87 1017.5
20260508125941 12 186 0.0 1.6 0.00 0.00 0.84 87 1017.3
20260508125925 12 186 0.0 1.6 0.00 0.00 0.84 87 1017.6
20260508125658 12 183 0.0 1.6 0.00 0.00 0.84 87 1017.4
20260508125336 12 190 0.0 1.6 0.00 0.00 0.84 88 1017.7
20260508125135 12 190 0.0 3.2 0.00 0.00 0.84 88 1017.6
20260508125045 12 190 0.0 3.2 0.00 0.00 0.84 88 1017.6
20260508125036 12 189 0.0 3.2 0.00 0.00 0.84 88 1017.6
20260508125020 12 176 0.0 3.2 0.00 0.00 0.84 89 1017.6
20260508125011 12 180 0.0 3.2 0.00 0.00 0.84 88 1017.3
20260508124955 12 185 0.0 3.2 0.00 0.00 0.84 89 1017.5
20260508124939 12 189 0.0 3.2 0.00 0.00 0.84 89 1017.4
20260508124924 12 172 0.0 3.2 0.00 0.00 0.84 89 1017.7
20260508124657 12 167 0.0 3.2 0.00 0.00 0.84 89 1017.6
20260508124337 12 179 0.0 3.2 0.00 0.00 0.84 89 1017.7
20260508124236 12 167 0.0 3.2 0.00 0.00 0.84 89 1017.5
20260508124136 12 180 0.0 0.0 0.00 0.00 0.84 89 1017.5
20260508124044 12 184 0.0 0.0 0.00 0.00 0.84 89 1017.6
20260508124036 12 184 0.0 0.0 0.00 0.00 0.84 89 1017.6
20260508123937 12 167 0.0 0.0 0.00 0.00 0.84 89 1017.6
20260508123836 12 188 0.0 0.0 0.00 0.00 0.84 89 1017.7
20260508123735 12 151 0.0 0.0 0.00 0.00 0.84 89 1017.6
20260508123636 12 182 0.0 0.0 0.00 0.00 0.84 89 1017.7
20260508123611 12 183 0.0 1.6 0.00 0.00 0.84 89 1017.4
20260508123601 12 163 0.0 1.6 0.00 0.00 0.84 89 1017.7
20260508123555 12 163 0.0 1.6 0.00 0.00 0.84 88 1017.7
20260508123539 12 182 0.0 1.6 0.00 0.00 0.84 89 1017.6
20260508123524 12 180 0.0 1.6 0.00 0.00 0.84 89 1017.3
20260508123508 12 190 0.0 1.6 0.00 0.00 0.84 89 1017.4
20260508123451 12 186 0.0 1.6 0.00 0.00 0.84 89 1017.8
20260508123222 12 182 0.0 1.6 0.00 0.00 0.84 89 1017.4
20260508123207 12 184 0.0 1.6 0.00 0.00 0.84 89 1017.7
20260508123151 12 183 0.0 1.6 0.00 0.00 0.84 89 1017.5
20260508123134 12 150 0.0 1.6 0.00 0.00 0.84 89 1017.5
20260508122858 12 180 0.0 0.0 0.00 0.00 0.84 89 1017.6
20260508122852 12 177 0.0 0.0 0.00 0.00 0.84 89 1017.6
20260508122615 12 181 0.0 0.0 0.00 0.00 0.84 88 1017.5
20260508122600 12 177 0.0 0.0 0.00 0.00 0.84 88 1017.5
20260508122544 12 187 0.0 0.0 0.00 0.00 0.84 88 1017.1
20260508122528 12 185 0.0 0.0 0.00 0.00 0.84 88 1017.5
20260508122040 12 189 0.0 0.0 0.00 0.00 0.84 88 1017.7
20260508121803 12 188 0.0 3.2 0.00 0.00 0.84 88 1017.5
20260508121746 12 190 0.0 3.2 0.00 0.00 0.84 88 1017.4
20260508121436 12 190 0.0 3.2 0.00 0.00 0.84 88 1017.5
20260508121336 12 189 0.0 3.2 0.00 0.00 0.84 89 1017.7
20260508121236 12 189 0.0 3.2 0.00 0.00 0.84 89 1017.4
20260508121142 12 185 0.0 0.0 0.00 0.00 0.84 90 1017.6
20260508121136 12 187 0.0 3.2 0.00 0.00 0.84 89 1017.4
20260508121125 12 180 0.0 0.0 0.00 0.00 0.84 90 1017.4
20260508121116 12 190 0.0 3.2 0.00 0.00 0.84 90 1017.5
20260508121108 12 190 0.0 3.2 0.00 0.00 0.84 90 1017.5
20260508121046 12 185 0.0 3.2 0.00 0.00 0.84 90 1017.8
20260508121030 12 177 0.0 3.2 0.00 0.00 0.84 89 1017.5
20260508120753 11 187 0.0 1.6 0.00 0.00 0.84 90 1017.5
20260508120731 11 185 0.0 1.6 0.00 0.00 0.84 90 1017.8
20260508120455 11 178 0.0 1.6 0.00 0.00 0.84 90 1017.5
20260508120439 11 182 0.0 1.6 0.00 0.00 0.84 90 1017.5
20260508120423 11 162 0.0 1.6 0.00 0.00 0.84 90 1017.6
20260508120407 12 170 0.0 1.6 0.00 0.00 0.84 90 1017.5
20260508120139 11 180 0.0 0.0 0.00 0.00 0.84 90 1017.5
20260508115915 12 187 0.0 0.0 0.00 0.00 0.84 90 1017.6
20260508115853 12 183 0.0 0.0 0.00 0.00 0.84 90 1017.5
20260508115838 12 163 0.0 0.0 0.00 0.00 0.84 90 1017.6
20260508115612 12 180 0.0 0.0 0.00 0.00 0.84 90 1017.4
20260508115556 12 184 0.0 0.0 0.00 0.00 0.84 91 1017.2
20260508115541 12 172 0.0 0.0 0.00 0.00 0.84 91 1017.4
20260508115525 12 182 0.0 0.0 0.00 0.00 0.84 90 1017.6
20260508115037 12 185 0.0 0.0 0.00 0.00 0.84 90 1017.6
20260508114938 12 166 0.0 0.0 0.00 0.00 0.84 90 1017.5
20260508114836 12 169 0.0 1.6 0.00 0.00 0.84 91 1017.4
20260508114736 12 185 0.0 1.6 0.00 0.00 0.84 92 1017.3
20260508114637 11 186 0.0 1.6 0.00 0.00 0.84 92 1017.4
20260508114544 11 185 0.0 1.6 0.00 0.00 0.84 92 1017.4
20260508114537 11 185 0.0 1.6 0.00 0.00 0.84 93 1017.4
20260508114436 11 184 0.0 1.6 0.00 0.00 0.84 93 1017.5
20260508114336 11 177 0.0 1.6 0.00 0.00 0.84 93 1017.3
20260508114236 11 182 0.0 1.6 0.00 0.00 0.84 94 1017.5
20260508114137 11 182 0.0 1.6 0.00 0.00 0.84 94 1017.3
20260508114046 11 186 0.0 1.6 0.00 0.00 0.84 95 1017.5
20260508114037 11 185 0.0 1.6 0.00 0.00 0.84 95 1017.5
20260508113936 11 186 0.0 1.6 0.00 0.00 0.84 95 1017.3
20260508113835 11 169 0.0 0.0 0.00 0.00 0.84 95 1017.5
20260508113748 11 133 0.0 0.0 0.00 0.00 0.84 95 1017.6
20260508113732 11 174 0.0 0.0 0.00 0.00 0.84 96 1017.5
20260508113657 11 187 0.0 0.0 0.00 0.00 0.84 97 1017.5
20260508113415 11 184 0.0 0.0 0.00 0.00 0.84 97 1017.4
20260508113358 11 180 0.0 0.0 0.00 0.00 0.84 97 1017.6
20260508113045 11 187 0.0 0.0 0.00 0.00 0.84 98 1017.3
20260508113036 11 186 0.0 0.0 0.00 0.00 0.84 98 1017.3
20260508112935 11 181 0.0 0.0 0.00 0.00 0.84 99 1017.4
20260508112836 11 157 0.0 0.0 0.00 0.00 0.84 99 1017.5
20260508112737 11 186 0.0 0.0 0.00 0.00 0.84 99 1017.3
20260508112637 11 179 0.0 0.0 0.00 0.00 0.84 100 1017.5
20260508112544 11 178 0.0 0.0 0.00 0.00 0.84 100 1017.5
20260508112536 11 177 0.0 0.0 0.00 0.00 0.84 100 1017.5
20260508112437 11 183 0.0 0.0 0.00 0.00 0.84 100 1017.6
20260508112336 11 186 0.0 1.6 0.00 0.00 0.84 100 1017.4
20260508112236 11 186 0.0 1.6 0.00 0.00 0.84 100 1017.4
20260508112147 10 145 0.0 1.6 0.00 0.00 0.84 100 1017.3
20260508112142 11 178 0.0 1.6 0.00 0.00 0.84 100 1017.4
20260508112127 11 185 0.0 1.6 0.00 0.00 0.84 100 1017.2
20260508112118 11 184 0.0 1.6 0.00 0.00 0.84 100 1017.2
20260508112101 11 172 0.0 1.6 0.00 0.00 0.84 100 1017.2
20260508111836 11 168 0.0 1.6 0.00 0.00 0.84 100 1017.5
20260508111821 10 180 0.0 1.6 0.00 0.00 0.84 100 1017.5
20260508111805 10 175 0.0 1.6 0.00 0.00 0.84 100 1017.4
20260508111535 10 145 0.0 1.6 0.00 0.00 0.84 100 1017.3
20260508111436 11 100 0.0 1.6 0.00 0.00 0.84 100 1017.4
20260508111400 10 186 0.0 1.6 0.00 0.00 0.84 100 1017.3
20260508111343 10 185 0.0 1.6 0.00 0.00 0.84 100 1017.2
20260508111044 10 153 0.0 1.6 0.00 0.00 0.84 100 1017.2
20260508111024 10 168 0.0 0.0 0.00 0.00 0.84 100 1017.3
20260508110924 10 188 0.0 0.0 0.00 0.00 0.84 100 1017.2
20260508110824 10 181 0.0 0.0 0.00 0.00 0.84 100 1017.3
20260508110724 10 170 0.0 0.0 0.00 0.00 0.84 100 1017.4
20260508110624 10 176 0.0 0.0 0.00 0.00 0.84 100 1017.4
20260508110544 10 182 0.0 0.0 0.00 0.00 0.84 100 1017.4
20260508110524 10 178 0.0 0.0 0.00 0.00 0.84 100 1017.3
20260508110423 10 175 0.0 0.0 0.00 0.00 0.84 100 1017.4
20260508110324 10 135 0.0 0.0 0.00 0.00 0.84 100 1017.4
20260508110225 10 105 0.0 1.6 0.00 0.00 0.84 100 1017.2
20260508110124 10 189 0.0 1.6 0.00 0.00 0.84 100 1017.4
20260508110058 10 185 0.0 1.6 0.00 0.00 0.84 100 1017.4
20260508110013 10 184 0.0 1.6 0.00 0.00 0.84 100 1017.4
20260508105912 10 155 0.0 1.6 0.00 0.00 0.84 100 1017.4
20260508105857 10 178 0.0 1.6 0.00 0.00 0.84 100 1017.4
20260508105848 10 173 0.0 1.6 0.00 0.00 0.84 100 1017.2
20260508105832 10 171 0.0 1.6 0.00 0.00 0.84 100 1017.2
20260508105816 10 180 0.0 1.6 0.00 0.00 0.84 100 1017.4
20260508105549 10 173 0.0 1.6 0.00 0.00 0.84 100 1017.3
20260508105533 10 182 0.0 1.6 0.00 0.00 0.84 100 1017.3
20260508105212 10 164 0.0 1.6 0.00 0.00 0.84 100 1017.1
20260508105112 10 122 0.0 1.6 0.00 0.00 0.84 100 1017.3
20260508105044 10 172 0.0 1.6 0.00 0.00 0.84 100 1017.3
20260508105013 10 139 0.0 1.6 0.00 0.00 0.84 100 1017.1
20260508104912 10 182 0.0 1.6 0.00 0.00 0.84 100 1017.2
20260508104813 10 170 0.0 0.0 0.00 0.00 0.84 100 1017.6
20260508104755 10 168 0.0 0.0 0.00 0.00 0.84 100 1017.4
20260508104740 10 172 0.0 0.0 0.00 0.00 0.84 100 1017.5
20260508104727 10 183 0.0 0.0 0.00 0.00 0.84 100 1017.5
20260508104413 10 186 0.0 0.0 0.00 0.00 0.84 100 1017.4
20260508104312 10 186 0.0 0.0 0.00 0.00 0.84 100 1017.6
20260508104212 10 186 0.0 0.0 0.00 0.00 0.84 100 1017.2
20260508104125 10 163 0.0 0.0 0.00 0.00 0.84 100 1017.4
20260508104111 10 186 0.0 0.0 0.00 0.00 0.84 100 1017.4
20260508104100 10 185 0.0 0.0 0.00 0.00 0.84 100 1017.4
20260508104045 10 184 0.0 0.0 0.00 0.00 0.84 100 1017.3
20260508104029 10 185 0.0 0.0 0.00 0.00 0.84 100 1017.4
20260508104014 10 184 0.0 0.0 0.00 0.00 0.84 100 1017.2
20260508103741 10 183 0.0 0.0 0.00 0.00 0.84 100 1017.4
20260508103732 10 172 0.0 0.0 0.00 0.00 0.84 100 1017.4
20260508103456 10 166 0.0 0.0 0.00 0.00 0.84 100 1017.2
20260508103220 10 169 0.0 0.0 0.00 0.00 0.84 100 1017.5
20260508103207 10 181 0.0 0.0 0.00 0.00 0.84 100 1017.5
20260508103156 10 180 0.0 0.0 0.00 0.00 0.84 100 1017.2
20260508102927 10 185 0.0 0.0 0.00 0.00 0.84 100 1017.3
20260508102911 10 185 0.0 0.0 0.00 0.00 0.84 100 1017.2
20260508102856 10 183 0.0 0.0 0.00 0.00 0.84 100 1017.4
20260508102632 10 184 0.0 0.0 0.00 0.00 0.84 100 1017.3
20260508102625 10 182 0.0 0.0 0.00 0.00 0.84 100 1017.4
20260508102612 10 181 0.0 1.6 0.00 0.00 0.84 100 1017.4
20260508102603 10 178 0.0 1.6 0.00 0.00 0.84 100 1017.2
20260508102548 10 186 0.0 1.6 0.00 0.00 0.84 100 1017.5
20260508102532 10 187 0.0 1.6 0.00 0.00 0.84 100 1017.3
20260508102516 10 183 0.0 1.6 0.00 0.00 0.84 100 1017.4
20260508102501 10 183 0.0 1.6 0.00 0.00 0.84 100 1017.3
20260508102447 10 181 0.0 1.6 0.00 0.00 0.84 100 1017.3
20260508102436 10 180 0.0 1.6 0.00 0.00 0.84 100 1017.1
20260508102421 10 179 0.0 1.6 0.00 0.00 0.84 100 1017.4
20260508102405 10 124 0.0 1.6 0.00 0.00 0.84 100 1017.2
20260508102350 10 183 0.0 1.6 0.00 0.00 0.84 100 1017.2
20260508102334 10 189 0.0 1.6 0.00 0.00 0.84 100 1017.4
20260508102321 10 182 0.0 1.6 0.00 0.00 0.84 100 1017.4
20260508102052 10 179 0.0 1.6 0.00 0.00 0.84 100 1017.3
20260508102035 10 163 0.0 1.6 0.00 0.00 0.84 100 1017.3
20260508101326 10 166 0.0 1.6 0.00 0.00 0.84 100 1017.1
20260508101050 11 161 0.0 0.0 0.00 0.00 0.84 100 1017.4
20260508101034 11 132 0.0 0.0 0.00 0.00 0.84 100 1017.2
20260508100801 11 187 0.0 0.0 0.00 0.00 0.84 100 1017.3
20260508100532 10 186 0.0 0.0 0.00 0.00 0.84 100 1017.2
20260508100516 10 186 0.0 0.0 0.00 0.00 0.84 100 1017.4
20260508100500 10 179 0.0 0.0 0.00 0.00 0.84 100 1017.1
20260508100444 10 182 0.0 0.0 0.00 0.00 0.84 100 1017.3
20260508095912 10 185 0.0 0.0 0.00 0.00 0.84 100 1017.1
20260508095812 10 187 0.0 0.0 0.00 0.00 0.84 100 1017.2
20260508095712 10 184 0.0 0.0 0.00 0.00 0.84 100 1017.1
20260508095613 10 155 0.0 0.0 0.00 0.00 0.84 100 1017.3
20260508095544 10 169 0.0 0.0 0.00 0.00 0.84 100 1017.3
20260508095512 10 186 0.0 0.0 0.00 0.00 0.84 100 1017.3
20260508095447 10 183 0.0 0.0 0.00 0.00 0.84 100 1017.2
20260508095432 10 161 0.0 1.6 0.00 0.00 0.84 100 1017.3
20260508095156 10 189 0.0 1.6 0.00 0.00 0.84 100 1017.4
20260508095147 10 181 0.0 1.6 0.00 0.00 0.84 100 1017.4
20260508095133 10 179 0.0 1.6 0.00 0.00 0.84 100 1017.4
20260508095122 10 164 0.0 1.6 0.00 0.00 0.84 100 1017.2
20260508095107 10 150 0.0 1.6 0.00 0.00 0.84 100 1017.5
20260508094831 10 186 0.0 1.6 0.00 0.00 0.84 100 1017.4
20260508094816 10 159 0.0 1.6 0.00 0.00 0.84 100 1017.4
20260508094548 10 192 0.0 3.2 0.00 0.00 0.84 100 1017.3
20260508094533 10 196 0.0 3.2 0.00 0.00 0.84 100 1017.4
20260508094517 10 174 0.0 3.2 0.00 0.00 0.84 100 1017.2
20260508094501 10 183 0.0 3.2 0.00 0.00 0.84 100 1017.3
20260508094228 10 130 0.0 3.2 0.00 0.00 0.84 100 1017.4
20260508093913 10 185 0.0 3.2 0.00 0.00 0.84 100 1017.4
20260508093840 10 173 0.0 3.2 0.00 0.00 0.84 100 1017.3
20260508093825 10 179 0.0 3.2 0.00 0.00 0.84 100 1017.4
20260508093809 10 175 0.0 3.2 0.00 0.00 0.84 100 1017.2
20260508093756 10 172 0.0 1.6 0.00 0.00 0.84 100 1017.2
20260508093748 10 188 0.0 1.6 0.00 0.00 0.84 100 1017.2
20260508093733 10 187 0.0 1.6 0.00 0.00 0.84 100 1017.4
20260508093237 10 188 0.0 0.0 0.00 0.00 0.84 100 1017.4
20260508093220 10 188 0.0 0.0 0.00 0.00 0.84 100 1017.4
20260508093208 10 188 0.0 0.0 0.00 0.00 0.84 100 1017.2
20260508093153 10 187 0.0 0.0 0.00 0.00 0.84 100 1017.3
20260508092612 10 186 0.0 0.0 0.00 0.00 0.84 100 1017.2
20260508092532 10 187 0.0 0.0 0.00 0.00 0.84 100 1017.2
20260508092512 10 181 0.0 0.0 0.00 0.00 0.84 100 1017.1
20260508092450 10 185 0.0 0.0 0.00 0.00 0.84 100 1017.2
20260508092435 10 177 0.0 0.0 0.00 0.00 0.84 100 1017.2
20260508092145 10 182 0.0 0.0 0.00 0.00 0.84 100 1017.2
20260508092128 10 175 0.0 0.0 0.00 0.00 0.84 100 1017.2
20260508092119 10 116 0.0 0.0 0.00 0.00 0.84 100 1017.3
20260508091748 10 177 0.0 0.0 0.00 0.00 0.84 100 1017.3
20260508091648 10 182 0.0 0.0 0.00 0.00 0.84 100 1017.2
20260508091532 10 177 0.0 0.0 0.00 0.00 0.84 100 1017.3
20260508091512 10 163 0.0 0.0 0.00 0.00 0.84 100 1017.1
20260508091456 10 179 0.0 0.0 0.00 0.00 0.84 100 1017.3
20260508091136 10 148 0.0 0.0 0.00 0.00 0.84 100 1017.2
20260508091036 10 184 0.0 0.0 0.00 0.00 0.84 100 1017.3
20260508090936 10 185 0.0 0.0 0.00 0.00 0.84 100 1017.4
20260508090836 10 185 0.0 0.0 0.00 0.00 0.84 100 1017.5
20260508090737 10 181 0.0 0.0 0.00 0.00 0.84 100 1017.1
20260508090718 10 182 0.0 0.0 0.00 0.00 0.84 100 1017.2
20260508090656 10 187 0.0 0.0 0.00 0.00 0.84 100 1017.2
20260508090336 10 188 0.0 0.0 0.00 0.00 0.84 100 1017.2
20260508090235 10 187 0.0 0.0 0.00 0.00 0.84 100 1017.4
20260508090151 10 187 0.0 0.0 0.00 0.00 0.84 100 1017.3
20260508090126 10 187 0.0 0.0 0.00 0.00 0.84 100 1017.1
20260508090057 10 187 0.0 0.0 0.00 0.00 0.84 100 1017.2
20260508085736 10 183 0.0 0.0 0.00 0.00 0.84 100 1017.2
20260508085635 10 181 0.0 0.0 0.00 0.00 0.84 100 1017.1
20260508085537 10 179 0.0 0.0 0.00 0.00 0.84 100 1017.2
20260508085436 10 170 0.0 0.0 0.00 0.00 0.84 100 1017.0
20260508085412 10 184 0.0 0.0 0.00 0.00 0.84 100 1017.0
20260508085356 10 187 0.0 0.0 0.00 0.00 0.84 100 1017.1
20260508085035 10 186 0.0 0.0 0.00 0.00 0.84 100 1017.1
20260508084717 10 162 0.0 0.0 0.00 0.53 0.84 100 1017.0
20260508084618 10 188 0.0 0.0 0.00 0.53 0.84 100 1017.1
20260508084600 10 188 0.0 0.0 0.00 0.53 0.84 100 1017.1
20260508084552 10 188 0.0 0.0 0.00 0.53 0.84 100 1017.1
20260508084536 10 186 0.0 0.0 0.00 0.53 0.84 100 1016.9
20260508084216 10 185 0.0 0.0 0.00 0.53 0.84 100 1017.1
20260508084151 10 185 0.0 0.0 0.00 0.53 0.84 100 1017.0
20260508084133 10 184 0.0 0.0 0.00 0.53 0.84 100 1017.0
20260508084125 10 184 0.0 0.0 0.00 0.53 0.84 100 1017.0
20260508084110 10 184 0.0 0.0 0.00 0.53 0.84 100 1017.0
20260508084055 10 183 0.0 0.0 0.00 0.53 0.84 100 1017.2
20260508083820 10 187 0.0 0.0 0.00 0.53 0.84 100 1017.2
20260508083805 10 187 0.0 0.0 0.00 0.53 0.84 100 1017.2
20260508083538 10 187 0.0 0.0 0.00 0.53 0.84 100 1017.0
20260508083217 10 188 0.0 0.0 0.00 0.53 0.84 100 1017.1
20260508083116 10 188 0.0 0.0 0.00 0.53 0.84 100 1017.2
20260508083036 10 188 0.0 0.0 0.00 0.53 0.84 100 1017.2
20260508083016 10 188 0.0 0.0 0.00 0.53 0.84 100 1017.2
20260508082917 10 188 0.0 0.0 0.00 0.53 0.84 100 1016.9
20260508082817 10 188 0.0 0.0 0.00 0.53 0.84 100 1017.2
20260508082717 10 188 0.0 0.0 0.00 0.53 0.84 100 1017.1
20260508082659 10 187 0.0 0.0 0.00 0.53 0.84 100 1017.1
20260508082644 10 187 0.0 0.0 0.00 0.53 0.84 100 1017.1
20260508082636 10 187 0.0 0.0 0.00 0.53 0.84 100 1017.3
20260508082316 10 188 0.0 0.0 0.00 0.53 0.84 100 1017.0
20260508082217 10 188 0.0 0.0 0.00 0.53 0.84 100 1017.1
20260508082117 10 188 0.0 0.0 0.00 0.53 0.84 100 1017.2
20260508082037 10 188 0.0 0.0 0.00 0.53 0.84 100 1017.2
20260508082016 10 188 0.0 0.0 0.00 0.53 0.84 100 1016.9
20260508081918 10 188 0.0 0.0 0.00 0.53 0.84 100 1017.2
20260508081816 10 188 0.0 0.0 0.00 0.53 0.84 100 1017.2
20260508081716 10 188 0.0 0.0 0.00 0.53 0.84 100 1017.2
20260508081616 10 188 0.0 0.0 0.00 0.53 0.84 100 1017.0
20260508081536 10 188 0.0 0.0 0.00 0.53 0.84 100 1017.0
20260508081516 10 188 0.0 0.0 0.00 0.53 0.84 100 1017.0
20260508081417 10 188 0.0 0.0 0.00 0.53 0.84 100 1017.1
20260508081316 10 188 0.0 0.0 0.00 0.53 0.84 100 1017.0
20260508081216 10 188 0.0 0.0 0.00 0.53 0.84 100 1017.3
20260508081116 10 188 0.0 0.0 0.00 0.53 0.84 100 1017.1
20260508081036 10 189 0.0 0.0 0.00 0.53 0.84 100 1017.1
20260508081016 10 188 0.0 0.0 0.00 0.53 0.84 100 1016.8
20260508080917 10 187 0.0 0.0 0.00 0.53 0.84 100 1016.9
20260508080835 9 187 0.0 0.0 0.00 0.53 0.84 100 1016.9
20260508080828 10 187 0.0 0.0 0.00 0.53 0.84 100 1016.9
20260508080813 10 187 0.0 0.0 0.00 0.53 0.84 100 1017.1
20260508080756 9 186 0.0 0.0 0.00 0.53 0.84 100 1016.9
20260508080515 9 186 0.0 0.0 0.00 0.53 0.84 100 1016.8
20260508080416 9 185 0.0 0.0 0.00 0.53 0.84 100 1017.0
20260508080355 9 184 0.0 0.0 0.00 0.53 0.84 100 1016.9
20260508080338 9 186 0.0 0.0 0.00 0.53 0.84 100 1017.0
20260508080036 9 186 0.0 0.0 0.00 0.53 0.84 100 1016.7
20260508080016 9 185 0.0 0.0 0.00 0.53 0.84 100 1016.9
20260508075915 9 183 0.0 0.0 0.00 0.53 0.84 100 1017.0
20260508075816 9 177 0.0 0.0 0.00 0.53 0.84 100 1017.1
20260508075716 9 185 0.0 0.0 0.00 0.53 0.84 100 1016.8
20260508075617 9 186 0.0 0.0 0.00 0.53 0.84 100 1016.9
20260508075537 9 186 0.0 0.0 0.00 0.53 0.84 100 1016.9
20260508075516 9 182 0.0 0.0 0.00 0.53 0.84 100 1016.9
20260508075452 9 181 0.0 0.0 0.00 0.53 0.84 100 1016.8
20260508075436 9 170 0.0 0.0 0.00 0.53 0.84 100 1016.8
20260508075116 10 182 0.0 0.0 0.00 0.53 0.84 100 1016.8
20260508075037 10 185 0.0 0.0 0.00 0.53 0.84 100 1016.8
20260508075016 10 185 0.0 0.0 0.00 0.53 0.84 100 1016.9
20260508074916 10 184 0.0 0.0 0.00 0.53 0.84 100 1016.7
20260508074853 10 179 0.0 0.0 0.03 0.53 0.84 100 1016.8
20260508074838 10 185 0.0 0.0 0.03 0.53 0.84 100 1016.9
20260508074536 10 186 0.0 0.0 0.03 0.53 0.84 100 1016.8
20260508074516 10 186 0.0 0.0 0.03 0.53 0.84 100 1016.7
20260508074415 9 186 0.0 0.0 0.03 0.53 0.84 100 1016.7
20260508074351 9 184 0.0 0.0 0.03 0.53 0.84 100 1016.7
20260508074336 9 179 0.0 0.0 0.03 0.53 0.84 100 1016.8
20260508074049 9 184 0.0 0.0 0.03 0.53 0.84 100 1016.6
20260508074039 9 184 0.0 0.0 0.03 0.53 0.84 100 1016.8
20260508074033 9 178 0.0 0.0 0.03 0.53 0.84 100 1016.7
20260508074028 9 181 0.0 0.0 0.03 0.53 0.84 100 1016.3
20260508074024 9 185 0.0 0.0 0.03 0.53 0.84 100 1016.3
20260508074018 9 183 0.0 0.0 0.03 0.53 0.84 100 1016.5
20260508074002 9 185 0.0 0.0 0.03 0.53 0.84 100 1016.6
20260508073947 9 186 0.0 0.0 0.03 0.53 0.84 100 1016.6
20260508073930 9 186 0.0 0.0 0.03 0.53 0.84 100 1016.6
20260508073914 9 185 0.0 0.0 0.03 0.53 0.84 100 1016.4
20260508073900 9 184 0.0 0.0 0.03 0.53 0.84 100 1016.4
20260508073852 9 183 0.0 0.0 0.03 0.53 0.84 100 1016.7
20260508073837 9 184 0.0 0.0 0.03 0.53 0.84 100 1016.5
20260508073820 9 187 0.0 0.0 0.03 0.53 0.84 100 1016.6
20260508073805 9 184 0.0 0.0 0.03 0.53 0.84 100 1016.6
20260508073749 9 184 0.0 0.0 0.03 0.53 0.84 100 1016.6
20260508073521 9 183 0.0 0.0 0.03 0.53 0.84 100 1016.6
20260508073505 9 180 0.0 0.0 0.03 0.53 0.84 100 1016.7
20260508073450 9 178 0.0 0.0 0.03 0.53 0.84 100 1016.5
20260508073433 9 178 0.0 0.0 0.03 0.53 0.84 100 1016.6
20260508073418 9 182 0.0 0.0 0.03 0.53 0.84 100 1016.8
20260508073404 9 177 0.0 0.0 0.03 0.53 0.84 100 1016.8
20260508073356 9 174 0.0 0.0 0.03 0.53 0.84 100 1016.4
20260508073340 9 180 0.0 0.0 0.03 0.53 0.84 100 1016.6
20260508073105 9 182 0.0 0.0 0.03 0.53 0.84 100 1016.4
20260508073049 9 180 0.0 0.0 0.03 0.53 0.84 100 1016.7
20260508072601 9 187 0.0 0.0 0.03 0.53 0.84 100 1016.6
20260508072321 9 186 0.0 0.0 0.03 0.53 0.84 100 1016.4
20260508072307 9 182 0.0 0.0 0.03 0.53 0.84 100 1016.3
20260508071558 9 183 0.0 0.0 0.03 0.53 0.84 100 1016.4
20260508071542 9 178 0.0 0.0 0.03 0.53 0.84 100 1016.4
20260508071526 9 185 0.0 0.0 0.03 0.53 0.84 100 1016.3
20260508071035 9 185 0.0 0.0 0.03 0.53 0.84 100 1016.3
20260508070716 9 183 0.0 0.0 0.03 0.53 0.84 100 1016.4
20260508070617 9 183 0.0 0.0 0.03 0.53 0.84 100 1016.5
20260508070536 9 183 0.0 0.0 0.03 0.53 0.84 100 1016.5
20260508070517 9 183 0.0 0.0 0.03 0.53 0.84 100 1016.4
20260508070416 9 182 0.0 0.0 0.03 0.53 0.84 100 1016.4
20260508070316 9 172 0.0 0.0 0.03 0.53 0.84 100 1016.3
20260508070300 9 182 0.0 0.0 0.03 0.53 0.84 100 1016.4
20260508070244 9 183 0.0 0.0 0.03 0.53 0.84 100 1016.6
20260508070228 9 182 0.0 0.0 0.03 0.53 0.84 100 1016.6
20260508065917 9 186 0.0 0.0 0.03 0.53 0.84 100 1016.2
20260508065816 9 185 0.0 0.0 0.03 0.53 0.84 100 1016.3
20260508065716 9 185 0.0 0.0 0.03 0.53 0.84 100 1016.1
20260508065617 9 178 0.0 0.0 0.03 0.53 0.84 100 1016.2
20260508065536 9 173 0.0 0.0 0.03 0.53 0.84 100 1016.2
20260508065516 9 179 0.0 0.0 0.03 0.53 0.84 100 1016.5
20260508065456 9 183 0.0 0.0 0.03 0.53 0.84 100 1016.5
20260508065441 9 183 0.0 0.0 0.03 0.53 0.84 100 1016.3
20260508065425 9 183 0.0 0.0 0.03 0.53 0.84 100 1016.2
20260508065410 9 182 0.0 0.0 0.03 0.53 0.84 100 1016.4
20260508065352 9 182 0.0 0.0 0.03 0.53 0.84 100 1016.4
20260508065112 9 180 0.0 0.0 0.03 0.53 0.84 100 1016.1
20260508065056 9 176 0.0 0.0 0.00 0.51 0.84 100 1016.2
20260508064537 9 179 0.0 0.0 0.00 0.51 0.81 100 1016.2
20260508064516 9 179 0.0 0.0 0.00 0.51 0.81 100 1016.0
20260508064416 9 179 0.0 0.0 0.00 0.51 0.81 100 1016.0
20260508064317 9 177 0.0 0.0 0.00 0.51 0.81 100 1016.1
20260508064300 9 177 0.0 0.0 0.00 0.51 0.81 100 1016.1
20260508064245 9 174 0.0 1.6 0.00 0.51 0.81 100 1016.2
20260508064228 9 169 0.0 1.6 0.00 0.51 0.81 100 1016.2
20260508063940 9 179 0.0 1.6 0.00 0.51 0.81 100 1016.0
20260508063924 9 178 0.0 1.6 0.00 0.51 0.81 100 1016.2
20260508063908 9 180 0.0 1.6 0.00 0.51 0.81 100 1016.0
20260508063853 9 180 0.0 1.6 0.00 0.51 0.81 100 1016.0
20260508063838 9 179 0.0 1.6 0.00 0.51 0.81 100 1016.0
20260508063608 9 174 0.0 1.6 0.00 0.51 0.81 100 1016.2
20260508063553 9 161 0.0 1.6 0.00 0.51 0.81 100 1015.8
20260508063537 9 138 0.0 1.6 0.00 0.51 0.81 100 1016.0
20260508063522 9 169 0.0 1.6 0.00 0.51 0.81 100 1015.9
20260508063506 9 139 0.0 1.6 0.00 0.51 0.81 100 1015.9
20260508063458 9 158 0.0 1.6 0.00 0.51 0.81 100 1016.2
20260508062743 9 178 0.0 3.2 0.00 0.51 0.81 100 1015.8
20260508062728 9 177 0.0 3.2 0.00 0.51 0.81 100 1015.8
20260508062453 9 178 0.0 3.2 0.00 0.51 0.81 100 1015.9
20260508062436 9 174 0.0 3.2 0.00 0.51 0.81 100 1016.1
20260508062117 9 167 0.0 3.2 0.00 0.51 0.81 100 1016.0
20260508062035 9 146 0.0 3.2 0.00 0.51 0.81 100 1016.0
20260508062016 9 65 1.6 3.2 0.00 0.51 0.81 100 1015.9
20260508061916 9 181 0.0 1.6 0.00 0.51 0.81 100 1016.1
20260508061816 9 182 0.0 1.6 0.00 0.51 0.81 100 1015.9
20260508061716 9 185 0.0 1.6 0.00 0.51 0.81 100 1016.0
20260508061617 9 181 0.0 1.6 0.00 0.51 0.81 100 1016.0
20260508061600 9 181 0.0 1.6 0.00 0.51 0.81 100 1016.0
20260508061552 9 179 0.0 1.6 0.00 0.51 0.81 100 1016.2
20260508061537 9 174 0.0 1.6 0.00 0.51 0.81 100 1016.1
20260508061217 9 170 0.0 1.6 0.00 0.51 0.81 100 1015.9
20260508061116 9 152 0.0 1.6 0.00 0.51 0.81 100 1016.0
20260508061036 9 128 0.0 1.6 0.00 0.51 0.81 100 1016.0
20260508061015 9 139 0.0 1.6 0.00 0.51 0.81 100 1016.0
20260508060916 9 158 0.0 1.6 0.00 0.51 0.81 100 1016.1
20260508060853 9 182 0.0 1.6 0.00 0.51 0.81 100 1016.1
20260508060836 9 172 0.0 1.6 0.00 0.51 0.81 100 1015.9
20260508060538 9 127 0.0 1.6 0.00 0.51 0.81 100 1016.0
20260508060517 9 127 0.0 1.6 0.00 0.51 0.81 100 1016.1
20260508060443 9 149 0.0 1.6 0.00 0.51 0.81 100 1016.0
20260508060427 9 163 0.0 0.0 0.00 0.51 0.81 100 1016.1
20260508060411 9 187 0.0 0.0 0.00 0.51 0.81 100 1016.0
20260508060356 9 183 0.0 0.0 0.00 0.51 0.81 100 1016.0
20260508060339 9 182 0.0 0.0 0.00 0.51 0.81 100 1016.0
20260508060112 9 184 0.0 0.0 0.00 0.51 0.81 100 1016.0
20260508055836 9 184 0.0 0.0 0.00 0.51 0.81 100 1016.0
20260508055537 9 176 0.0 0.0 0.00 0.51 0.81 100 1015.9
20260508055515 9 185 0.0 0.0 0.00 0.51 0.81 100 1015.8
20260508055417 9 182 0.0 3.2 0.00 0.51 0.81 100 1015.9
20260508055317 9 181 0.0 3.2 0.00 0.51 0.81 100 1015.7
20260508055216 9 167 0.0 3.2 0.00 0.51 0.81 100 1015.8
20260508055116 9 167 0.0 3.2 0.00 0.51 0.81 100 1015.7
20260508055036 9 171 0.0 3.2 0.00 0.51 0.81 100 1015.7
20260508055016 9 171 0.0 3.2 0.00 0.51 0.81 100 1015.9
20260508054917 8 184 0.0 3.2 0.00 0.51 0.81 100 1015.8
20260508054816 8 185 0.0 3.2 0.00 0.51 0.81 100 1015.7
20260508054715 8 176 0.0 3.2 0.00 0.51 0.81 100 1015.8
20260508054616 8 180 0.0 3.2 0.00 0.51 0.81 100 1015.6
20260508054537 8 165 0.0 3.2 0.00 0.51 0.81 100 1015.6
20260508054516 8 165 0.0 3.2 0.00 0.51 0.81 100 1015.7
20260508054417 8 125 0.0 1.6 0.00 0.51 0.81 100 1015.7
20260508054316 8 182 0.0 1.6 0.00 0.51 0.81 100 1015.6
20260508054216 8 173 0.0 0.0 0.00 0.51 0.81 100 1015.7
20260508054116 8 162 0.0 0.0 0.00 0.51 0.81 100 1015.6
20260508054035 8 155 0.0 0.0 0.00 0.51 0.81 100 1015.6
20260508054016 8 151 0.0 0.0 0.00 0.51 0.81 100 1015.7
20260508053952 8 145 0.0 0.0 0.00 0.51 0.81 100 1015.9
20260508053936 9 158 0.0 0.0 0.00 0.51 0.81 100 1015.8
20260508053616 9 169 0.0 0.0 0.00 0.51 0.81 100 1015.7
20260508053536 9 163 0.0 0.0 0.00 0.51 0.81 100 1015.7
20260508053516 9 180 0.0 0.0 0.00 0.51 0.81 100 1015.9
20260508053425 9 188 0.0 0.0 0.00 0.51 0.81 100 1015.8
20260508053419 9 186 0.0 0.0 0.00 0.51 0.81 100 1015.9
20260508053404 9 172 0.0 0.0 0.00 0.51 0.81 100 1016.0
20260508053348 9 180 0.0 0.0 0.00 0.51 0.81 100 1015.8
20260508053110 9 185 0.0 0.0 0.00 0.51 0.81 100 1016.0
20260508053102 9 184 0.0 0.0 0.00 0.51 0.81 100 1016.0
20260508053047 9 186 0.0 0.0 0.00 0.51 0.81 100 1016.1
20260508053030 10 187 0.0 0.0 0.00 0.51 0.81 100 1016.0
20260508052755 10 187 0.0 0.0 0.00 0.51 0.81 100 1015.8
20260508052516 9 189 0.0 0.0 0.00 0.51 0.81 100 1016.2
20260508052451 9 190 0.0 0.0 0.00 0.51 0.81 100 1016.3
20260508052436 9 190 0.0 0.0 0.00 0.51 0.81 100 1015.6
20260508052115 9 178 0.0 0.0 0.00 0.51 0.81 100 1015.9
20260508052036 9 185 0.0 0.0 0.00 0.51 0.81 100 1015.9
20260508052017 9 186 0.0 1.6 0.00 0.51 0.81 100 1015.9
20260508051950 9 185 0.0 1.6 0.00 0.51 0.81 100 1016.0
20260508051934 9 185 0.0 1.6 0.00 0.51 0.81 100 1016.2
20260508051919 9 185 0.0 1.6 0.00 0.51 0.81 100 1016.2
20260508051643 9 188 0.0 1.6 0.00 0.51 0.81 100 1015.9
20260508051636 9 188 0.0 1.6 0.00 0.51 0.81 100 1016.1
20260508051315 9 186 0.0 1.6 0.00 0.51 0.81 100 1015.9
20260508051216 9 186 0.0 1.6 0.00 0.51 0.81 100 1015.9
20260508051117 9 186 0.0 1.6 0.00 0.51 0.81 100 1016.0
20260508051038 9 146 0.0 0.0 0.00 0.51 0.81 100 1016.0
20260508051017 9 198 0.0 0.0 0.00 0.51 0.81 100 1015.7
20260508050916 9 186 0.0 0.0 0.00 0.51 0.81 100 1015.7
20260508050817 9 189 0.0 0.0 0.00 0.51 0.81 100 1016.0
20260508050717 9 191 0.0 0.0 0.00 0.51 0.81 100 1015.8
20260508050616 9 188 0.0 0.0 0.00 0.51 0.81 100 1015.8
20260508050536 9 188 0.0 0.0 0.00 0.51 0.81 100 1015.8
20260508050516 9 187 0.0 0.0 0.00 0.51 0.81 100 1015.9
20260508050415 9 191 0.0 0.0 0.00 0.51 0.81 100 1015.8
20260508050352 9 192 0.0 0.0 0.00 0.51 0.81 100 1015.9
20260508050337 9 185 0.0 0.0 0.00 0.51 0.81 100 1015.7
20260508050036 9 186 0.0 0.0 0.00 0.51 0.81 100 1015.8
20260508050016 9 184 0.0 0.0 0.00 0.51 0.81 100 1015.7
20260508045917 9 194 0.0 1.6 0.00 0.51 0.81 100 1015.6
20260508045816 9 190 0.0 1.6 0.00 0.51 0.81 100 1015.6
20260508045759 9 191 0.0 1.6 0.00 0.51 0.81 100 1015.5
20260508045742 9 185 0.0 1.6 0.00 0.51 0.81 100 1015.7
20260508045728 9 185 0.0 1.6 0.00 0.51 0.81 100 1015.7
20260508045416 9 188 0.0 1.6 0.00 0.51 0.81 100 1015.7
20260508045351 9 177 0.0 1.6 0.00 0.51 0.81 100 1015.6
20260508045336 9 175 0.0 1.6 0.00 0.51 0.81 100 1015.4
20260508045036 9 175 0.0 1.6 0.00 0.51 0.81 100 1015.5
20260508045017 9 116 0.0 1.6 0.00 0.51 0.81 100 1015.5
20260508044915 9 102 0.0 1.6 0.00 0.51 0.81 100 1015.6
20260508044832 9 195 0.0 0.0 0.00 0.51 0.81 100 1015.6
20260508044827 9 173 0.0 1.6 0.00 0.51 0.81 100 1015.7
20260508044811 9 199 0.0 1.6 0.00 0.51 0.81 100 1015.6
20260508044756 9 129 0.0 1.6 0.00 0.51 0.81 100 1015.6
20260508044518 9 184 0.0 0.0 0.00 0.51 0.81 100 1015.5
20260508044412 9 135 0.0 0.0 0.00 0.51 0.81 100 1015.6
20260508044313 9 188 0.0 0.0 0.00 0.51 0.81 100 1015.4
20260508044211 9 188 0.0 0.0 0.00 0.51 0.81 100 1015.6
20260508044113 9 186 0.0 0.0 0.00 0.51 0.81 100 1015.7
20260508044032 9 174 0.0 0.0 0.00 0.51 0.81 100 1015.7
20260508044012 9 172 0.0 0.0 0.00 0.51 0.81 100 1015.5
20260508043912 9 182 0.0 0.0 0.03 0.51 0.81 100 1015.6
20260508043851 9 188 0.0 0.0 0.03 0.51 0.81 100 1015.7
20260508043834 9 188 0.0 0.0 0.03 0.51 0.81 100 1015.3
20260508043533 9 186 0.0 0.0 0.03 0.51 0.81 100 1015.4
20260508043512 9 186 0.0 0.0 0.03 0.51 0.81 100 1015.6
20260508043412 9 184 0.0 0.0 0.03 0.51 0.81 100 1015.6
20260508043312 9 185 0.0 0.0 0.03 0.51 0.81 100 1015.4
20260508043213 9 184 0.0 0.0 0.03 0.51 0.81 100 1015.5
20260508043158 9 174 0.0 0.0 0.03 0.51 0.81 100 1015.4
20260508043140 9 182 0.0 0.0 0.03 0.51 0.81 100 1015.4
20260508043132 9 174 0.0 0.0 0.03 0.51 0.81 100 1015.3
20260508042812 9 180 0.0 0.0 0.03 0.51 0.81 100 1015.4
20260508042713 9 159 0.0 0.0 0.03 0.51 0.81 100 1015.4
20260508042612 9 176 0.0 0.0 0.03 0.51 0.81 100 1015.2
20260508042532 9 181 0.0 0.0 0.03 0.51 0.81 100 1015.2
20260508042513 9 180 0.0 0.0 0.03 0.51 0.81 100 1015.1
20260508042414 9 181 0.0 0.0 0.03 0.51 0.81 100 1015.3
20260508042315 9 163 0.0 0.0 0.03 0.51 0.81 100 1015.2
20260508042259 9 178 0.0 0.0 0.03 0.51 0.81 100 1015.1
20260508042242 9 178 0.0 1.6 0.03 0.51 0.81 100 1015.4
20260508042226 9 178 0.0 1.6 0.03 0.51 0.81 100 1015.4
20260508041912 9 184 0.0 1.6 0.03 0.51 0.81 100 1015.3
20260508041812 9 127 0.0 1.6 0.05 0.51 0.81 100 1015.3
20260508041712 9 183 0.0 1.6 0.05 0.51 0.81 100 1015.3
20260508041613 9 183 0.0 1.6 0.05 0.51 0.81 100 1015.3
20260508041533 9 162 0.0 1.6 0.05 0.51 0.81 100 1015.3
20260508041513 9 185 0.0 1.6 0.05 0.51 0.81 100 1015.4
20260508041500 9 185 0.0 1.6 0.05 0.51 0.81 100 1015.3
20260508041450 9 178 0.0 1.6 0.05 0.51 0.81 100 1015.4
20260508041434 9 184 0.0 1.6 0.05 0.51 0.81 100 1015.2
20260508041418 9 168 0.0 1.6 0.05 0.51 0.81 100 1015.3
20260508041402 9 185 0.0 1.6 0.05 0.51 0.81 100 1015.3
20260508041132 9 184 0.0 1.6 0.05 0.51 0.81 100 1015.3
20260508040812 9 184 0.0 1.6 0.05 0.51 0.81 100 1015.2
20260508040712 9 96 0.0 1.6 0.05 0.51 0.81 100 1015.2
20260508040655 9 128 0.0 1.6 0.05 0.51 0.81 100 1015.3
20260508040641 9 184 0.0 1.6 0.05 0.51 0.81 100 1015.3
20260508040633 9 184 0.0 1.6 0.05 0.51 0.81 100 1015.1
20260508040347 9 142 0.0 1.6 0.05 0.51 0.81 100 1015.0
20260508040332 9 170 0.0 1.6 0.05 0.51 0.81 100 1015.1
20260508040032 9 182 0.0 1.6 0.05 0.51 0.81 100 1015.1
20260508040013 9 182 0.0 1.6 0.05 0.51 0.81 100 1015.4
20260508035911 9 136 0.0 1.6 0.05 0.51 0.81 100 1015.1
20260508035812 9 157 0.0 1.6 0.05 0.51 0.81 100 1015.1
20260508035717 9 180 0.0 0.0 0.08 0.51 0.81 100 1015.1
20260508035612 9 182 0.0 0.0 0.08 0.51 0.81 100 1015.2
20260508035556 9 184 0.0 0.0 0.08 0.51 0.81 100 1015.0
20260508035547 9 193 0.0 0.0 0.08 0.51 0.81 100 1015.2
20260508035539 9 190 0.0 0.0 0.08 0.51 0.81 100 1015.2
20260508035524 9 185 0.0 0.0 0.08 0.51 0.81 100 1015.2
20260508035508 9 182 0.0 0.0 0.08 0.51 0.81 100 1015.1
20260508035453 9 184 0.0 0.0 0.08 0.51 0.81 100 1015.1
20260508035437 9 184 0.0 0.0 0.08 0.51 0.81 100 1015.0
20260508035207 9 155 0.0 0.0 0.08 0.51 0.81 100 1015.1
20260508034932 9 186 0.0 0.0 0.08 0.51 0.81 100 1015.0
20260508034646 9 186 0.0 1.6 0.08 0.51 0.81 100 1015.1
20260508034631 9 185 0.0 1.6 0.08 0.51 0.81 100 1015.1
20260508034622 9 175 0.0 1.6 0.08 0.51 0.81 100 1015.2
20260508034300 9 158 0.0 1.6 0.08 0.51 0.81 100 1015.1
20260508034147 10 180 0.0 1.6 0.08 0.51 0.81 100 1015.4
20260508034048 10 170 0.0 1.6 0.08 0.51 0.81 100 1015.1
20260508034032 10 179 0.0 1.6 0.08 0.51 0.81 100 1015.1
20260508033947 10 177 0.0 1.6 0.05 0.48 0.79 100 1015.2
20260508033848 10 172 0.0 1.6 0.05 0.48 0.79 100 1015.2
20260508033748 10 177 0.0 1.6 0.05 0.48 0.79 100 1015.0
20260508033648 10 198 0.0 0.0 0.05 0.48 0.79 100 1015.1
20260508033532 10 183 0.0 0.0 0.08 0.48 0.79 100 1015.1
20260508033449 10 190 0.0 0.0 0.08 0.48 0.79 100 1015.2
20260508033349 10 186 0.0 0.0 0.08 0.48 0.79 100 1015.1
20260508033248 10 189 0.0 0.0 0.08 0.48 0.79 100 1015.1
20260508033152 10 187 0.0 0.0 0.08 0.48 0.79 100 1015.1
20260508033135 10 185 0.0 0.0 0.08 0.48 0.79 100 1015.1
20260508033120 10 183 0.0 0.0 0.08 0.48 0.79 100 1015.1
20260508033110 10 186 0.0 0.0 0.08 0.48 0.79 100 1015.1
20260508032748 10 188 0.0 0.0 0.08 0.48 0.79 100 1015.1
20260508032647 10 188 0.0 0.0 0.08 0.48 0.79 100 1015.1
20260508032548 10 191 0.0 0.0 0.08 0.48 0.79 100 1015.0
20260508032532 10 191 0.0 1.6 0.08 0.48 0.79 100 1015.0
20260508032447 10 195 0.0 1.6 0.08 0.48 0.79 100 1015.2
20260508032349 10 192 0.0 1.6 0.10 0.48 0.79 100 1015.1
20260508032326 10 200 0.0 1.6 0.10 0.48 0.79 100 1015.1
20260508032310 10 176 0.0 1.6 0.10 0.48 0.79 100 1015.0
20260508032254 10 189 0.0 1.6 0.10 0.48 0.79 100 1015.1
20260508032241 10 191 0.0 1.6 0.10 0.48 0.79 100 1015.1
20260508032230 10 187 0.0 1.6 0.10 0.48 0.79 100 1015.2
20260508031648 10 174 0.0 1.6 0.10 0.46 0.76 100 1015.0
20260508031533 10 196 0.0 0.0 0.10 0.46 0.76 100 1015.1
20260508031449 10 170 0.0 0.0 0.10 0.46 0.76 100 1014.9
20260508031348 10 195 0.0 0.0 0.10 0.46 0.76 100 1015.1
20260508031248 10 153 0.0 0.0 0.13 0.46 0.76 100 1015.0
20260508031148 10 171 0.0 0.0 0.13 0.46 0.76 100 1014.8
20260508031117 10 179 0.0 1.6 0.15 0.46 0.76 100 1014.8
20260508031111 10 189 0.0 1.6 0.18 0.43 0.74 100 1014.6
20260508031107 10 177 0.0 1.6 0.20 0.43 0.74 100 1014.9
20260508031100 10 180 0.0 0.0 0.13 0.46 0.76 100 1014.8
20260508031046 10 186 0.0 0.0 0.13 0.46 0.76 100 1014.8
20260508031023 10 188 0.0 0.0 0.13 0.46 0.76 100 1014.8
20260508031006 10 191 0.0 0.0 0.13 0.46 0.76 100 1015.0
20260508030950 10 185 0.0 0.0 0.13 0.46 0.76 100 1015.0
20260508030935 10 187 0.0 0.0 0.13 0.46 0.76 100 1014.7
20260508030919 10 191 0.0 0.0 0.15 0.46 0.76 100 1014.8
20260508030908 10 186 0.0 0.0 0.15 0.46 0.76 100 1014.8
20260508030856 10 188 0.0 0.0 0.15 0.46 0.76 100 1014.8
20260508030839 10 186 0.0 1.6 0.15 0.46 0.76 100 1015.0
20260508030603 10 191 0.0 1.6 0.15 0.46 0.76 100 1014.9
20260508030546 10 169 0.0 1.6 0.15 0.46 0.76 100 1014.8
20260508030318 10 180 0.0 1.6 0.18 0.46 0.76 100 1014.8
20260508030302 10 186 0.0 1.6 0.18 0.46 0.76 100 1014.8
20260508030027 10 178 0.0 1.6 0.18 0.43 0.74 100 1014.7
20260508030010 10 189 0.0 1.6 0.18 0.43 0.74 100 1014.6
20260508025727 10 182 0.0 1.6 0.18 0.43 0.74 100 1014.8
20260508025711 10 198 0.0 0.0 0.20 0.43 0.74 100 1014.8
20260508025656 10 173 0.0 0.0 0.20 0.43 0.74 100 1014.7
20260508025421 10 171 0.0 1.6 0.20 0.43 0.74 100 1014.9
20260508024847 10 191 0.0 1.6 0.23 0.43 0.74 100 1014.5
20260508024748 10 186 0.0 1.6 0.23 0.43 0.74 100 1014.6
20260508024649 10 182 0.0 1.6 0.23 0.43 0.74 100 1014.7
20260508024548 10 188 0.0 1.6 0.23 0.43 0.74 100 1014.7
20260508024532 10 187 0.0 1.6 0.23 0.43 0.74 100 1014.7
20260508024448 10 188 0.0 1.6 0.23 0.43 0.74 100 1014.3
20260508024348 10 188 0.0 1.6 0.25 0.43 0.74 100 1014.7
20260508024332 10 187 0.0 1.6 0.28 0.43 0.74 100 1014.7
20260508024323 10 184 0.0 1.6 0.25 0.43 0.74 100 1014.5
20260508024307 10 195 0.0 1.6 0.25 0.43 0.74 100 1014.3
20260508024251 10 189 0.0 1.6 0.28 0.43 0.74 100 1014.7
20260508023943 10 190 0.0 1.6 0.30 0.43 0.74 100 1014.5
20260508023838 10 187 0.0 1.6 0.30 0.43 0.74 100 1014.5
20260508023737 10 188 0.0 1.6 0.30 0.43 0.74 100 1014.6
20260508023712 10 199 0.0 1.6 0.30 0.43 0.74 100 1014.3
20260508023649 10 195 0.0 0.0 0.30 0.41 0.74 100 1014.6
20260508023633 10 177 0.0 0.0 0.30 0.41 0.71 100 1014.5
20260508023617 10 188 0.0 0.0 0.30 0.41 0.71 100 1014.7
20260508023037 10 188 0.0 0.0 0.33 0.41 0.71 100 1014.2
20260508022937 10 188 0.0 0.0 0.33 0.41 0.71 100 1014.2
20260508022923 10 186 0.0 0.0 0.33 0.41 0.71 100 1014.5
20260508022919 10 186 0.0 1.6 0.33 0.38 0.69 100 1014.3
20260508022909 10 188 0.0 0.0 0.33 0.41 0.71 100 1014.2
20260508022853 10 187 0.0 0.0 0.33 0.41 0.71 100 1014.3
20260508022838 10 186 0.0 0.0 0.33 0.41 0.71 100 1014.2
20260508022821 10 186 0.0 0.0 0.33 0.41 0.71 100 1014.5
20260508022555 10 184 0.0 1.6 0.33 0.41 0.71 100 1014.5
20260508022538 10 185 0.0 1.6 0.30 0.38 0.69 100 1014.3
20260508022524 10 186 0.0 1.6 0.30 0.38 0.69 100 1014.5
20260508022508 10 185 0.0 1.6 0.30 0.38 0.69 100 1014.5
20260508022001 10 188 0.0 0.0 0.30 0.33 0.64 100 1014.2
20260508021957 10 176 0.0 4.8 0.25 0.25 0.56 100 1014.2
20260508021949 10 186 0.0 1.6 0.33 0.38 0.69 100 1014.2
20260508021933 10 169 0.0 1.6 0.33 0.38 0.69 100 1014.5
20260508021918 10 181 0.0 1.6 0.30 0.36 0.66 100 1014.5
20260508021901 10 173 0.0 1.6 0.30 0.36 0.66 100 1014.5
20260508021839 10 125 0.0 1.6 0.30 0.36 0.66 100 1014.3
20260508021823 10 185 0.0 0.0 0.30 0.36 0.66 100 1014.2
20260508021808 10 176 0.0 0.0 0.33 0.36 0.66 100 1014.2
20260508021752 10 187 0.0 0.0 0.30 0.33 0.64 100 1014.5
20260508021737 10 187 0.0 0.0 0.30 0.33 0.64 100 1014.2
20260508021247 10 188 0.0 0.0 0.30 0.33 0.64 100 1014.3
20260508021231 10 188 0.0 0.0 0.30 0.33 0.64 100 1014.3
20260508021215 10 188 0.0 0.0 0.30 0.33 0.64 100 1014.7
20260508020727 10 192 0.0 3.2 0.30 0.30 0.64 100 1014.3
20260508020711 10 190 0.0 3.2 0.30 0.30 0.61 100 1014.6
20260508020433 10 190 0.0 3.2 0.30 0.30 0.61 100 1014.7
20260508020418 10 188 0.0 3.2 0.30 0.30 0.61 100 1014.3
20260508020353 10 187 0.0 4.8 0.30 0.30 0.61 100 1014.3
20260508020337 10 186 0.0 4.8 0.28 0.28 0.61 100 1014.5
20260508020044 10 142 0.0 4.8 0.25 0.25 0.56 100 1014.2
20260508020027 10 176 0.0 4.8 0.25 0.25 0.56 100 1014.2
20260508015315 10 171 0.0 4.8 0.23 0.23 0.53 100 1014.5
20260508015259 10 135 0.0 4.8 0.23 0.23 0.53 100 1014.3
20260508015236 10 177 0.0 0.0 0.23 0.23 0.53 100 1014.6
20260508015206 10 180 0.0 0.0 0.20 0.20 0.53 100 1014.6
20260508014929 10 115 0.0 0.0 0.20 0.20 0.51 100 1014.6
20260508014913 10 168 0.0 0.0 0.20 0.20 0.51 100 1014.6
20260508014646 10 170 0.0 0.0 0.20 0.20 0.51 100 1014.6
20260508014629 10 191 0.0 0.0 0.20 0.20 0.51 100 1014.5
20260508014614 10 192 0.0 0.0 0.18 0.18 0.51 100 1014.5
20260508014558 10 191 0.0 0.0 0.18 0.18 0.48 100 1014.7
20260508014313 10 188 0.0 0.0 0.15 0.15 0.46 100 1014.5
20260508014257 10 186 0.0 0.0 0.13 0.13 0.46 100 1014.2
20260508013802 10 174 0.0 0.0 0.13 0.13 0.43 100 1014.6
20260508013536 10 182 0.0 0.0 0.10 0.10 0.41 100 1014.6
20260508013436 10 186 0.0 0.0 0.10 0.10 0.41 100 1014.6
20260508013338 10 185 0.0 0.0 0.10 0.10 0.41 100 1014.7
20260508013238 10 192 0.0 0.0 0.10 0.10 0.41 100 1014.7
20260508013136 10 192 0.0 0.0 0.10 0.10 0.41 100 1014.8
20260508013036 10 191 0.0 0.0 0.08 0.08 0.38 100 1014.7
20260508012936 10 190 0.0 0.0 0.08 0.08 0.38 100 1014.6
20260508012911 10 191 0.0 0.0 0.08 0.08 0.38 100 1014.8
20260508012856 10 190 0.0 0.0 0.08 0.08 0.38 100 1015.0
20260508012536 10 189 0.0 0.0 0.08 0.08 0.38 100 1014.8
20260508012437 10 188 0.0 0.0 0.08 0.08 0.38 100 1014.9
20260508012335 10 186 0.0 0.0 0.08 0.08 0.38 100 1014.7
20260508012236 10 188 0.0 0.0 0.08 0.08 0.38 100 1014.8
20260508012137 10 188 0.0 0.0 0.08 0.08 0.38 100 1014.7
20260508012036 10 187 0.0 0.0 0.05 0.05 0.38 100 1014.8
20260508011937 10 185 0.0 0.0 0.05 0.05 0.36 100 1014.9
20260508011836 10 192 0.0 0.0 0.05 0.05 0.36 100 1014.8
20260508011736 10 192 0.0 0.0 0.05 0.05 0.36 100 1014.7
20260508011637 10 192 0.0 0.0 0.05 0.05 0.36 100 1014.7
20260508011538 10 192 0.0 0.0 0.05 0.05 0.36 100 1014.8
20260508011512 10 192 0.0 0.0 0.05 0.05 0.36 100 1014.6
20260508011457 10 192 0.0 0.0 0.03 0.03 0.36 100 1015.0
20260508011135 10 190 0.0 0.0 0.03 0.03 0.33 100 1014.8
20260508011036 10 187 0.0 0.0 0.03 0.03 0.33 100 1014.8
20260508010938 10 190 0.0 0.0 0.03 0.03 0.33 100 1014.9
20260508010836 10 191 0.0 0.0 0.03 0.03 0.33 100 1014.9
20260508010736 10 172 0.0 0.0 0.03 0.03 0.33 100 1014.9
20260508010636 10 191 0.0 0.0 0.03 0.03 0.33 100 1014.6
20260508010536 10 193 0.0 0.0 0.00 0.00 0.33 100 1014.7
20260508010514 10 180 0.0 0.0 0.00 0.00 0.30 100 1014.6
20260508010506 10 191 0.0 0.0 0.00 0.00 0.30 100 1014.7
20260508010451 10 188 0.0 0.0 0.00 0.00 0.30 100 1014.7
20260508010424 10 191 0.0 0.0 0.00 0.00 0.30 100 1014.7
20260508010406 10 180 0.0 0.0 0.00 0.00 0.30 100 1014.6
20260508005836 10 188 0.0 0.0 0.00 0.00 0.30 100 1014.6
20260508005736 10 192 0.0 0.0 0.00 0.00 0.30 100 1014.6
20260508005637 10 196 0.0 0.0 0.00 0.00 0.30 100 1014.7
20260508005536 10 191 0.0 0.0 0.00 0.00 0.30 100 1014.8
20260508005435 10 191 0.0 0.0 0.00 0.00 0.30 100 1014.7
20260508005336 10 191 0.0 0.0 0.00 0.00 0.30 100 1014.7
20260508005238 10 192 0.0 0.0 0.00 0.00 0.30 100 1014.3
20260508005136 10 192 0.0 0.0 0.00 0.00 0.30 100 1014.6
20260508005034 10 198 0.0 0.0 0.00 0.00 0.30 100 1014.5
20260508004719 10 192 0.0 0.0 0.18 0.91 0.30 100 1014.5
20260508004606 10 188 0.0 0.0 0.20 0.91 0.30 100 1014.2
20260508004544 10 169 0.0 0.0 0.20 0.91 0.30 100 1014.3
20260508004528 10 145 0.0 0.0 0.18 0.89 0.28 100 1014.5
20260508004513 10 196 0.0 0.0 0.18 0.89 0.28 100 1014.3
20260508004229 10 193 0.0 0.0 0.20 0.89 0.28 100 1014.1
20260508003907 10 191 0.0 0.0 0.23 0.89 0.28 100 1014.2
20260508003806 10 191 0.0 0.0 0.25 0.89 0.28 100 1014.2
20260508003706 10 187 0.0 0.0 0.25 0.89 0.28 100 1014.1
20260508003605 10 187 0.0 0.0 0.28 0.89 0.28 100 1014.0
20260508003506 10 185 0.0 0.0 0.28 0.89 0.28 100 1014.6
20260508003405 10 131 0.0 0.0 0.28 0.89 0.28 100 1014.1
20260508003306 10 190 0.0 0.0 0.28 0.89 0.28 100 1014.2
20260508003207 10 188 0.0 0.0 0.28 0.89 0.28 100 1014.3
20260508003106 10 194 0.0 0.0 0.28 0.89 0.28 100 1014.3
20260508003007 10 196 0.0 1.6 0.28 0.89 0.28 100 1014.3
20260508002934 10 194 0.0 1.6 0.28 0.89 0.28 100 1014.3
20260508002927 10 196 0.0 1.6 0.28 0.89 0.28 100 1014.2
20260508002912 10 197 0.0 1.6 0.28 0.89 0.28 100 1014.3
20260508002856 10 186 0.0 1.6 0.28 0.89 0.28 100 1014.3
20260508002839 10 194 0.0 1.6 0.28 0.89 0.28 100 1014.3
20260508002613 10 195 0.0 1.6 0.28 0.89 0.28 100 1014.1
20260508002557 10 192 0.0 1.6 0.28 0.89 0.28 100 1014.3
20260508002321 10 194 0.0 1.6 0.28 0.89 0.28 100 1014.2
20260508002259 10 176 0.0 1.6 0.28 0.89 0.28 100 1014.3
20260508002240 10 178 0.0 0.0 0.28 0.89 0.28 100 1014.3
20260508002004 10 190 0.0 0.0 0.28 0.89 0.28 100 1014.2
20260508001947 10 188 0.0 0.0 0.25 0.86 0.25 100 1014.7
20260508001924 10 185 0.0 0.0 0.25 0.86 0.25 100 1014.1
20260508001909 10 188 0.0 0.0 0.25 0.86 0.25 100 1014.2
20260508001632 10 199 0.0 0.0 0.25 0.86 0.25 100 1014.1
20260508001144 10 183 0.0 1.6 0.23 0.84 0.23 100 1014.1
20260508001126 10 168 0.0 1.6 0.23 0.84 0.23 100 1014.2
20260508000849 10 194 0.0 1.6 0.23 0.84 0.23 100 1014.1
20260508000832 10 182 0.0 1.6 0.23 0.84 0.23 100 1014.3
20260508000605 10 188 0.0 1.6 0.23 0.84 0.23 100 1014.0
20260508000541 10 132 0.0 1.6 0.23 0.84 0.23 100 1014.0
20260508000526 11 187 0.0 1.6 0.20 0.81 0.20 100 1014.0
20260508000250 11 186 0.0 0.0 0.20 0.81 0.20 100 1014.2
20260508000228 11 187 0.0 0.0 0.18 0.79 0.20 100 1014.1
20260507235941 11 161 0.0 0.0 0.18 0.79 0.18 100 1014.2
20260507235924 11 188 0.0 0.0 0.18 0.79 0.18 100 1014.3
20260507235907 11 139 0.0 0.0 0.18 0.79 0.18 100 1014.2
20260507235844 11 188 0.0 0.0 0.15 0.76 0.18 100 1014.8
20260507235608 11 186 0.0 0.0 0.15 0.76 0.15 100 1014.3
20260507235332 11 190 0.0 0.0 0.15 0.76 0.15 100 1014.5
20260507235106 11 188 0.0 0.0 0.15 0.76 0.15 100 1014.6
20260507235006 11 186 0.0 0.0 0.15 0.76 0.15 100 1014.5
20260507234906 11 193 0.0 0.0 0.15 0.76 0.15 100 1014.2
20260507234848 11 194 0.0 0.0 0.13 0.74 0.15 100 1014.3
20260507234832 11 193 0.0 0.0 0.13 0.74 0.13 100 1014.5
20260507234606 11 179 0.0 0.0 0.10 0.71 0.10 100 1014.5
20260507234507 11 188 0.0 0.0 0.10 0.71 0.10 100 1014.5
20260507234407 11 188 0.0 0.0 0.10 0.71 0.10 100 1014.5
20260507234305 11 187 0.0 0.0 0.10 0.71 0.10 100 1014.3
20260507234206 11 187 0.0 0.0 0.08 0.69 0.10 100 1014.2
20260507234106 11 187 0.0 1.6 0.08 0.69 0.08 100 1014.3
20260507234006 11 186 0.0 1.6 0.08 0.69 0.08 100 1014.3
20260507233908 11 185 0.0 1.6 0.05 0.66 0.05 100 1014.5
20260507233806 11 183 0.0 1.6 0.03 0.64 0.03 100 1014.1
20260507233706 11 186 0.0 1.6 0.03 0.64 0.03 100 1014.5
20260507233606 11 184 0.0 1.6 0.00 0.61 0.00 100 1014.2
20260507233541 11 181 0.0 1.6 0.00 0.61 0.00 100 1014.3
20260507233526 11 131 0.0 1.6 0.00 0.61 0.00 100 1014.1
20260507233510 11 144 0.0 1.6 0.00 0.61 0.00 100 1014.3
20260507233455 11 209 0.0 1.6 0.00 0.61 0.00 100 1014.3
20260507233228 11 169 0.0 0.0 0.00 0.61 0.00 100 1014.3
20260507232906 11 192 0.0 0.0 0.00 0.61 0.00 100 1014.3
20260507232807 11 191 0.0 0.0 0.00 0.61 0.00 100 1014.5
20260507232749 11 187 0.0 0.0 0.00 0.61 0.00 100 1014.6
20260507232727 11 169 0.0 0.0 0.00 0.61 0.00 100 1014.5
20260507232430 11 186 0.0 0.0 0.00 0.61 0.00 100 1014.6
20260507232414 11 187 0.0 0.0 0.00 0.61 0.00 100 1014.5
20260507232359 11 187 0.0 0.0 0.00 0.61 0.00 100 1014.3
20260507232336 11 169 0.0 0.0 0.00 0.61 0.00 100 1014.5
20260507232318 11 177 0.0 0.0 0.00 0.61 0.00 100 1014.2
20260507232042 11 192 0.0 0.0 0.00 0.61 0.00 100 1014.5
20260507232026 11 191 0.0 0.0 0.00 0.61 0.00 100 1014.3
20260507231800 11 191 0.0 0.0 0.00 0.61 0.00 100 1014.5
20260507231745 11 187 0.0 0.0 0.00 0.61 0.00 100 1014.3
20260507231729 11 187 0.0 0.0 0.00 0.61 0.00 100 1014.3
20260507231713 11 187 0.0 0.0 0.00 0.61 0.00 100 1014.2
20260507231227 11 187 0.0 0.0 0.00 0.61 0.00 100 1014.2
20260507230907 11 187 0.0 0.0 0.00 0.61 0.00 100 1014.5
20260507230807 11 187 0.0 0.0 0.00 0.61 0.00 100 1014.3
20260507230707 11 187 0.0 0.0 0.00 0.61 0.00 100 1014.6
20260507230606 11 187 0.0 0.0 0.00 0.61 0.00 100 1014.3
20260507230541 11 174 0.0 1.6 0.00 0.61 0.00 100 1014.1
20260507230533 11 181 0.0 0.0 0.00 0.61 0.00 100 1014.3
20260507230518 11 191 0.0 1.6 0.00 0.61 0.00 100 1014.3
20260507230502 11 191 0.0 1.6 0.00 0.61 0.00 100 1014.2
20260507230446 11 191 0.0 1.6 0.00 0.61 0.00 100 1014.2
20260507230429 11 174 0.0 1.6 0.00 0.61 0.00 100 1014.1
20260507230201 11 172 0.0 1.6 0.00 0.61 0.00 100 1014.1
20260507230145 11 165 0.0 1.6 0.00 0.61 0.00 100 1014.2
20260507225909 11 181 0.0 1.6 0.00 0.61 0.00 100 1014.3
20260507225642 11 186 0.0 1.6 0.00 0.61 0.00 100 1014.3
20260507225626 11 196 0.0 1.6 0.00 0.61 0.00 100 1014.3
20260507225609 11 173 0.0 1.6 0.00 0.61 0.00 100 1014.3
20260507225554 11 181 0.0 1.6 0.00 0.61 0.00 100 1014.2
20260507225532 11 166 0.0 1.6 0.00 0.61 0.00 100 1014.5
20260507225306 11 184 0.0 1.6 0.00 0.61 0.00 100 1014.6
20260507225026 11 180 0.0 1.6 0.00 0.61 0.00 100 1014.5
20260507224748 11 170 0.0 1.6 0.00 0.61 0.00 100 1014.5
20260507224725 11 163 0.0 1.6 0.00 0.61 0.00 100 1014.2
20260507224441 11 184 0.0 0.0 0.00 0.61 0.00 100 1014.5
20260507224425 11 181 0.0 0.0 0.00 0.61 0.00 100 1014.5
20260507224106 11 186 0.0 0.0 0.00 0.61 0.00 100 1014.3
20260507224006 11 190 0.0 0.0 0.00 0.61 0.00 100 1014.3
20260507223907 11 188 0.0 0.0 0.00 0.61 0.00 100 1014.2
20260507223806 11 190 0.0 0.0 0.00 0.61 0.00 100 1014.2
20260507223706 11 182 0.0 0.0 0.00 0.61 0.00 100 1014.1
20260507223634 12 192 0.0 1.6 0.03 0.61 0.00 100 1014.0
20260507223621 11 184 0.0 0.0 0.00 0.61 0.00 100 1014.1
20260507223604 11 184 0.0 0.0 0.00 0.61 0.00 100 1014.2
20260507223548 11 182 0.0 0.0 0.00 0.61 0.00 100 1014.3
20260507223532 11 182 0.0 0.0 0.00 0.61 0.00 100 1014.3
20260507223516 11 182 0.0 0.0 0.00 0.61 0.00 100 1013.9
20260507223247 11 178 0.0 0.0 0.00 0.61 0.00 100 1014.1
20260507223023 11 179 0.0 0.0 0.00 0.61 0.00 100 1014.5
20260507223008 11 171 0.0 0.0 0.00 0.61 0.00 100 1014.2
20260507222952 11 181 0.0 0.0 0.00 0.61 0.00 100 1014.2
20260507222732 12 187 0.0 0.0 0.03 0.61 0.00 100 1014.3
20260507222724 11 159 0.0 0.0 0.00 0.61 0.00 100 1014.2
20260507222702 12 169 0.0 0.0 0.00 0.61 0.00 100 1014.2
20260507222646 12 147 0.0 0.0 0.00 0.61 0.00 100 1014.5
20260507222411 12 190 0.0 0.0 0.03 0.61 0.00 100 1014.1
20260507222356 12 188 0.0 0.0 0.03 0.61 0.00 100 1014.3
20260507222332 12 188 0.0 0.0 0.03 0.61 0.00 100 1014.3
20260507222316 12 186 0.0 0.0 0.03 0.61 0.00 100 1014.3
20260507222259 12 180 0.0 1.6 0.03 0.61 0.00 100 1014.6
20260507222244 12 192 0.0 1.6 0.03 0.61 0.00 100 1014.1
20260507222228 12 192 0.0 1.6 0.03 0.61 0.00 100 1014.2
20260507222210 12 192 0.0 1.6 0.03 0.61 0.00 100 1014.0
20260507221945 12 191 0.0 1.6 0.03 0.61 0.00 100 1014.2
20260507221929 12 191 0.0 1.6 0.03 0.61 0.00 100 1014.3
20260507221654 12 184 0.0 1.6 0.03 0.61 0.00 100 1014.1
20260507221629 12 181 0.0 1.6 0.03 0.61 0.00 100 1014.2
20260507221614 12 200 0.0 1.6 0.03 0.61 0.00 100 1014.1
20260507221337 12 188 0.0 0.0 0.03 0.61 0.00 100 1014.0
20260507221322 12 188 0.0 0.0 0.03 0.61 0.00 100 1014.0
20260507220407 12 183 0.0 0.0 0.03 0.61 0.00 100 1014.0
20260507220351 12 182 0.0 0.0 0.03 0.61 0.00 100 1013.8
20260507220336 12 191 0.0 0.0 0.03 0.61 0.00 100 1014.0
20260507220312 12 191 0.0 0.0 0.03 0.61 0.00 100 1014.2
20260507220037 12 191 0.0 0.0 0.03 0.61 0.89 100 1014.1
20260507220021 12 176 0.0 0.0 0.03 0.61 0.89 100 1014.0
20260507220006 12 184 0.0 0.0 0.03 0.61 0.89 100 1014.0
20260507215942 12 186 0.0 0.0 0.03 0.61 0.89 100 1013.9
20260507215708 12 186 0.0 0.0 0.03 0.61 0.89 100 1014.0
20260507215653 12 190 0.0 0.0 0.03 0.61 0.89 100 1013.8
20260507215636 12 191 0.0 0.0 0.03 0.61 0.89 100 1013.9
20260507215616 12 187 0.0 0.0 0.03 0.61 0.89 100 1014.0
20260507215132 12 186 0.0 0.0 0.03 0.61 0.89 100 1013.9
20260507215116 12 177 0.0 0.0 0.03 0.61 0.89 100 1013.7
20260507215101 12 176 0.0 0.0 0.03 0.61 0.89 100 1013.7
20260507214834 12 175 0.0 0.0 0.03 0.61 0.89 100 1013.9
20260507214558 12 184 0.0 0.0 0.03 0.61 0.89 100 1014.0
20260507214322 12 174 0.0 0.0 0.03 0.61 0.89 100 1013.9
20260507214054 12 182 0.0 0.0 0.03 0.61 0.89 100 1014.0
20260507213954 12 172 0.0 0.0 0.03 0.61 0.89 100 1013.8
20260507213932 12 177 0.0 0.0 0.03 0.61 0.89 100 1013.8
20260507213916 12 160 0.0 0.0 0.03 0.61 0.89 100 1013.9
20260507213859 12 180 0.0 0.0 0.03 0.61 0.89 100 1013.8
20260507213835 12 152 0.0 0.0 0.03 0.61 0.89 100 1013.8
20260507213818 12 185 0.0 0.0 0.03 0.61 0.89 100 1013.6
20260507213542 12 171 0.0 0.0 0.03 0.61 0.89 100 1013.5
20260507213054 12 175 0.0 0.0 0.03 0.61 0.89 100 1013.7
20260507212955 12 181 0.0 0.0 0.03 0.61 0.89 100 1013.6
20260507212929 12 182 0.0 0.0 0.03 0.61 0.89 100 1013.7
20260507212913 12 184 0.0 0.0 0.03 0.61 0.89 100 1013.6
20260507212554 12 186 0.0 0.0 0.03 0.61 0.89 100 1013.9
20260507212530 12 179 0.0 0.0 0.03 0.61 0.89 100 1014.0
20260507212514 12 183 0.0 0.0 0.00 0.58 0.86 100 1014.0
20260507212154 12 190 0.0 0.0 0.00 0.58 0.86 100 1014.0
20260507212054 12 187 0.0 0.0 0.00 0.58 0.86 100 1014.0
20260507211954 12 188 0.0 0.0 0.00 0.58 0.86 100 1013.9
20260507211854 12 183 0.0 0.0 0.00 0.58 0.86 100 1013.8
20260507211755 12 191 0.0 0.0 0.00 0.58 0.86 100 1014.1
20260507211656 12 191 0.0 0.0 0.00 0.58 0.86 100 1014.0
20260507211554 12 191 0.0 0.0 0.00 0.58 0.86 100 1014.0
20260507211532 12 191 0.0 0.0 0.00 0.58 0.86 100 1014.1
20260507211515 12 191 0.0 0.0 0.00 0.58 0.86 100 1013.9
20260507211154 12 191 0.0 0.0 0.00 0.58 0.86 100 1014.0
20260507211054 12 191 0.0 0.0 0.00 0.58 0.86 100 1013.8
20260507210955 12 191 0.0 0.0 0.00 0.58 0.86 100 1013.9
20260507210853 12 191 0.0 0.0 0.00 0.58 0.86 100 1014.0
20260507210754 12 191 0.0 0.0 0.00 0.58 0.86 100 1013.7
20260507210654 12 191 0.0 0.0 0.00 0.58 0.86 100 1013.7
20260507210555 12 191 0.0 0.0 0.00 0.58 0.86 100 1014.0
20260507210454 12 191 0.0 0.0 0.00 0.58 0.86 100 1013.7
20260507210356 12 191 0.0 0.0 0.03 0.58 0.86 100 1013.9
20260507210259 12 191 0.0 0.0 0.03 0.58 0.86 100 1013.8
20260507210243 12 191 0.0 0.0 0.03 0.58 0.86 100 1013.7
20260507210219 12 191 0.0 0.0 0.03 0.58 0.86 100 1013.9
20260507210150 12 191 0.0 0.0 0.03 0.58 0.86 100 1013.8
20260507205914 12 190 0.0 0.0 0.05 0.58 0.86 100 1013.6
20260507205554 12 191 0.0 0.0 0.05 0.58 0.86 100 1013.7
20260507205454 12 191 0.0 0.0 0.05 0.58 0.86 100 1013.9
20260507205354 12 191 0.0 0.0 0.05 0.58 0.86 100 1013.7
20260507205255 12 192 0.0 0.0 0.05 0.58 0.86 100 1013.8
20260507205153 12 194 0.0 0.0 0.05 0.58 0.86 100 1013.8
20260507205054 12 194 0.0 0.0 0.05 0.58 0.86 100 1013.8
20260507204955 12 194 0.0 0.0 0.05 0.58 0.86 100 1013.9
20260507204855 12 194 0.0 0.0 0.05 0.58 0.86 100 1014.0
20260507204755 12 194 0.0 0.0 0.05 0.58 0.86 100 1014.1
20260507204655 12 194 0.0 0.0 0.05 0.58 0.86 100 1013.9
20260507204554 12 194 0.0 0.0 0.05 0.58 0.86 100 1014.0
20260507204454 12 194 0.0 0.0 0.08 0.58 0.86 100 1013.9
20260507204356 12 194 0.0 0.0 0.08 0.58 0.86 100 1013.6
20260507204255 12 192 0.0 0.0 0.10 0.58 0.86 100 1013.9
20260507204154 12 192 0.0 0.0 0.10 0.58 0.86 100 1013.6
20260507204107 12 192 0.0 0.0 0.10 0.58 0.86 100 1013.7
20260507203954 12 192 0.0 0.0 0.10 0.58 0.86 100 1013.8
20260507203854 12 193 0.0 0.0 0.10 0.58 0.86 100 1013.8
20260507203753 12 192 0.0 0.0 0.10 0.58 0.86 100 1013.6
20260507203655 12 192 0.0 0.0 0.10 0.58 0.86 100 1013.6
20260507203554 12 193 0.0 0.0 0.10 0.58 0.86 100 1013.3
20260507203455 12 193 0.0 0.0 0.10 0.58 0.86 100 1013.5
20260507203354 12 193 0.0 0.0 0.13 0.58 0.86 100 1013.7
20260507203255 12 193 0.0 0.0 0.13 0.58 0.86 100 1013.5
20260507203154 12 192 0.0 0.0 0.13 0.58 0.86 100 1013.3
20260507203054 12 192 0.0 0.0 0.13 0.58 0.86 100 1013.5
20260507202953 12 192 0.0 0.0 0.13 0.58 0.86 100 1013.8
20260507202856 12 193 0.0 0.0 0.13 0.58 0.86 100 1013.3
20260507202840 12 192 0.0 0.0 0.13 0.58 0.86 100 1013.4
20260507202823 12 192 0.0 0.0 0.13 0.58 0.86 100 1013.4
20260507202556 12 192 0.0 0.0 0.13 0.58 0.86 100 1013.4
20260507202454 12 192 0.0 0.0 0.13 0.58 0.86 100 1013.4
20260507202354 12 192 0.0 0.0 0.13 0.58 0.86 100 1013.3
20260507202255 12 192 0.0 0.0 0.13 0.58 0.86 100 1013.2
20260507202154 12 192 0.0 0.0 0.13 0.58 0.86 100 1013.3
20260507202055 12 192 0.0 0.0 0.13 0.58 0.86 100 1013.3
20260507201953 12 192 0.0 0.0 0.13 0.58 0.86 100 1013.2
20260507201855 12 192 0.0 0.0 0.13 0.58 0.86 100 1013.3
20260507201755 12 192 0.0 0.0 0.13 0.58 0.86 100 1013.2
20260507201654 12 170 0.0 0.0 0.13 0.58 0.86 100 1013.3
20260507201554 12 192 0.0 1.6 0.13 0.58 0.86 100 1013.2
20260507201454 12 189 0.0 1.6 0.13 0.58 0.86 100 1013.3
20260507201354 12 194 0.0 1.6 0.13 0.58 0.86 100 1013.2
20260507201254 12 196 0.0 1.6 0.13 0.58 0.86 100 1013.3
20260507201154 12 196 0.0 1.6 0.13 0.58 0.86 100 1013.4
20260507201054 12 192 0.0 3.2 0.13 0.58 0.86 100 1013.3
20260507200954 12 192 0.0 4.8 0.13 0.58 0.86 100 1013.3
20260507200929 12 191 0.0 4.8 0.13 0.58 0.86 100 1013.4
20260507200914 12 190 0.0 4.8 0.13 0.58 0.86 100 1013.2
20260507200554 12 191 0.0 4.8 0.13 0.58 0.86 100 1013.2
20260507200455 12 183 0.0 4.8 0.13 0.58 0.86 100 1013.3
20260507200355 12 177 0.0 4.8 0.10 0.56 0.84 100 1013.1
20260507200255 12 114 0.0 4.8 0.10 0.56 0.84 100 1013.1
20260507200154 12 109 0.0 4.8 0.10 0.56 0.84 100 1012.9
20260507200108 12 49 3.2 4.8 0.10 0.56 0.84 100 1012.9
20260507200031 12 120 0.0 4.8 0.10 0.56 0.84 100 1012.8
20260507200015 12 92 1.6 4.8 0.08 0.53 0.81 100 1012.8
20260507200000 12 84 0.0 4.8 0.08 0.53 0.81 100 1012.8
20260507195943 12 57 1.6 4.8 0.08 0.53 0.81 100 1012.9
20260507195715 12 105 0.0 4.8 0.08 0.53 0.81 100 1012.9
20260507195354 12 108 0.0 4.8 0.08 0.53 0.81 100 1013.0
20260507195255 12 69 0.0 4.8 0.08 0.53 0.81 100 1012.7
20260507195155 12 58 1.6 4.8 0.08 0.53 0.81 100 1013.0
20260507195054 12 59 1.6 4.8 0.08 0.53 0.81 100 1013.0
20260507194954 12 79 0.0 1.6 0.08 0.53 0.81 100 1013.0
20260507194853 12 54 0.0 1.6 0.08 0.53 0.81 100 1013.0
20260507194754 12 94 0.0 1.6 0.08 0.53 0.81 100 1013.1
20260507194654 12 118 0.0 1.6 0.08 0.53 0.81 100 1013.1
20260507194555 12 151 0.0 1.6 0.08 0.53 0.81 100 1013.3
20260507194533 12 140 0.0 1.6 0.05 0.51 0.79 100 1013.4
20260507194516 12 151 0.0 1.6 0.05 0.51 0.79 100 1013.5
20260507194241 12 192 0.0 1.6 0.03 0.48 0.76 100 1013.5
20260507194215 12 199 0.0 1.6 0.03 0.48 0.76 100 1013.5
20260507193854 12 187 0.0 0.0 0.03 0.48 0.76 100 1013.5
20260507193754 12 187 0.0 0.0 0.03 0.48 0.76 100 1013.6
20260507193654 12 186 0.0 0.0 0.03 0.48 0.76 100 1013.7
20260507193554 12 186 0.0 0.0 0.03 0.48 0.76 100 1013.5
20260507193454 12 188 0.0 0.0 0.03 0.48 0.76 100 1013.6
20260507193359 12 188 0.0 0.0 0.00 0.46 0.74 100 1013.5
20260507193354 12 188 0.0 0.0 0.00 0.46 0.74 100 1013.5
20260507193339 12 188 0.0 0.0 0.00 0.46 0.74 100 1013.6
20260507193324 12 188 0.0 0.0 0.00 0.46 0.74 100 1013.5
20260507193304 12 188 0.0 0.0 0.00 0.46 0.74 100 1013.5
20260507193029 12 188 0.0 0.0 0.00 0.46 0.74 100 1013.5
20260507193013 12 188 0.0 0.0 0.00 0.46 0.74 100 1013.4
20260507192733 12 188 0.0 0.0 0.00 0.46 0.74 100 1013.7
20260507192711 12 188 0.0 0.0 0.00 0.46 0.74 100 1013.5
20260507192655 12 188 0.0 0.0 0.00 0.46 0.74 100 1013.5
20260507192431 12 188 0.0 0.0 0.00 0.46 0.74 100 1013.4
20260507192417 12 188 0.0 3.2 0.00 0.46 0.74 100 1013.1
20260507192401 12 188 0.0 3.2 0.00 0.46 0.74 100 1013.1
20260507192129 12 188 0.0 3.2 0.00 0.46 0.74 100 1013.3
20260507192112 12 188 0.0 4.8 0.00 0.46 0.74 100 1013.2
20260507192056 12 188 0.0 4.8 0.00 0.46 0.74 100 1013.1
20260507192041 12 190 0.0 4.8 0.00 0.46 0.74 100 1013.0
20260507192025 12 190 0.0 4.8 0.00 0.46 0.74 100 1013.2
20260507191454 12 183 0.0 4.8 0.00 0.46 0.74 100 1012.8
20260507191356 12 78 3.2 4.8 0.00 0.46 0.74 100 1012.8
20260507191340 12 49 0.0 4.8 0.00 0.46 0.74 100 1012.9
20260507191324 12 130 0.0 4.8 0.00 0.46 0.74 100 1012.8
20260507191305 12 78 3.2 4.8 0.00 0.46 0.74 100 1012.8
20260507191029 12 114 0.0 6.4 0.08 0.46 0.74 100 1012.4
20260507191019 12 155 0.0 4.8 0.00 0.46 0.74 100 1012.5
20260507191004 12 112 1.6 4.8 0.00 0.46 0.74 100 1012.8
20260507190948 12 153 0.0 4.8 0.03 0.46 0.74 100 1012.7
20260507190705 12 136 0.0 4.8 0.03 0.46 0.74 100 1012.6
20260507190649 12 67 0.0 4.8 0.03 0.46 0.74 100 1012.7
20260507190412 12 171 0.0 6.4 0.05 0.46 0.74 100 1012.7
20260507190355 12 58 3.2 6.4 0.05 0.46 0.74 100 1012.6
20260507190123 12 74 0.0 6.4 0.05 0.46 0.74 100 1012.6
20260507190054 12 146 0.0 6.4 0.05 0.46 0.74 100 1012.5
20260507190037 12 143 0.0 6.4 0.05 0.46 0.74 100 1012.6
20260507190022 12 112 0.0 6.4 0.05 0.46 0.74 100 1012.4
20260507190006 12 114 1.6 6.4 0.08 0.46 0.74 100 1012.6
20260507185949 12 114 0.0 6.4 0.08 0.46 0.74 100 1012.4
20260507185502 12 59 1.6 6.4 0.08 0.46 0.74 100 1012.4
20260507185213 12 127 1.6 6.4 0.36 0.46 0.74 100 1012.5
20260507185204 12 108 1.6 3.2 0.15 0.46 0.74 100 1012.6
20260507185140 12 157 0.0 3.2 0.18 0.46 0.74 100 1012.6
20260507185124 12 163 0.0 3.2 0.18 0.46 0.74 100 1012.3
20260507185109 12 91 0.0 3.2 0.20 0.46 0.74 100 1012.4
20260507185053 12 115 0.0 3.2 0.23 0.46 0.74 100 1012.5
20260507185037 12 169 0.0 6.4 0.25 0.46 0.74 100 1012.7
20260507185015 12 124 0.0 6.4 0.25 0.46 0.74 100 1012.3
20260507184959 12 162 0.0 6.4 0.28 0.46 0.74 100 1012.3
20260507184944 12 128 1.6 6.4 0.30 0.46 0.74 100 1012.3
20260507184928 12 146 0.0 6.4 0.30 0.46 0.74 100 1012.4
20260507184912 12 146 0.0 6.4 0.33 0.46 0.74 100 1012.3
20260507184423 12 66 1.6 6.4 0.36 0.46 0.74 100 1012.6
20260507184407 12 120 0.0 6.4 0.36 0.46 0.74 100 1012.5
20260507184131 12 144 0.0 6.4 0.36 0.46 0.74 100 1012.5
20260507183904 12 169 0.0 6.4 0.36 0.46 0.74 100 1012.4
20260507183402 12 104 0.0 4.8 0.36 0.46 0.74 100 1012.3
20260507183041 12 89 0.0 4.8 0.36 0.46 0.74 100 1012.3
20260507182941 12 56 1.6 4.8 0.36 0.46 0.74 100 1012.6
20260507182742 12 174 0.0 4.8 0.36 0.46 0.74 100 1012.3
20260507182642 12 159 0.0 4.8 0.36 0.46 0.74 100 1012.3
20260507182603 12 179 0.0 4.8 0.36 0.46 0.74 100 1012.4
20260507182548 12 167 0.0 4.8 0.36 0.46 0.74 100 1012.3
20260507182531 12 162 0.0 6.4 0.36 0.46 0.74 100 1012.4
20260507182042 12 73 0.0 6.4 0.36 0.46 0.74 100 1012.4
20260507182011 12 150 0.0 6.4 0.36 0.46 0.74 100 1012.2
20260507181955 12 132 0.0 6.4 0.36 0.46 0.74 100 1012.1
20260507181939 12 30 1.6 6.4 0.36 0.46 0.74 100 1012.1
20260507181921 12 104 1.6 6.4 0.36 0.46 0.74 100 1012.2
20260507181900 12 69 1.6 6.4 0.36 0.46 0.74 100 1012.3
20260507181844 12 148 0.0 11.3 0.36 0.46 0.74 100 1011.9
20260507181605 12 57 1.6 11.3 0.36 0.46 0.74 100 1012.3
20260507181322 12 53 1.6 11.3 0.36 0.46 0.74 100 1012.2
20260507180740 12 58 3.2 11.3 0.33 0.43 0.71 100 1012.1
20260507180642 12 97 1.6 11.3 0.33 0.43 0.71 100 1012.3
20260507180541 12 27 3.2 11.3 0.33 0.43 0.71 100 1012.1
20260507180441 12 34 4.8 6.4 0.33 0.43 0.71 100 1012.2
20260507180342 12 357 4.8 6.4 0.33 0.41 0.69 100 1012.1
20260507180241 12 24 3.2 6.4 0.33 0.41 0.69 100 1012.1
20260507180142 12 172 0.0 6.4 0.33 0.41 0.69 100 1012.1
20260507180054 12 184 0.0 6.4 0.33 0.41 0.69 100 1012.1
20260507175940 12 159 1.6 6.4 0.36 0.41 0.69 100 1012.0
20260507175841 12 84 1.6 6.4 0.36 0.41 0.69 100 1012.0
20260507175741 12 134 0.0 6.4 0.38 0.41 0.69 100 1012.0
20260507175716 12 150 0.0 6.4 0.38 0.38 0.69 100 1012.0
20260507175654 12 34 3.2 6.4 0.38 0.38 0.66 100 1012.0
20260507175637 12 83 1.6 6.4 0.38 0.38 0.66 100 1011.9
20260507175622 12 141 0.0 6.4 0.38 0.38 0.66 100 1011.8
20260507175040 13 178 0.0 3.2 0.28 0.28 0.58 100 1011.8
20260507174950 13 152 0.0 11.3 0.10 0.10 0.38 99 1011.0
20260507174944 14 62 4.8 6.4 0.00 0.00 0.10 95 1010.7
20260507174940 13 166 0.0 4.8 0.28 0.28 0.56 100 1011.4
20260507174928 13 130 0.0 11.3 0.10 0.10 0.38 99 1011.0
20260507174919 13 123 1.6 4.8 0.25 0.25 0.53 100 1011.8
20260507174902 13 174 1.6 4.8 0.23 0.23 0.53 100 1011.8
20260507174846 13 194 0.0 4.8 0.20 0.20 0.51 100 1011.9
20260507174824 13 186 0.0 4.8 0.20 0.20 0.48 100 1011.9
20260507174809 13 118 0.0 4.8 0.18 0.18 0.46 100 1012.0
20260507174753 13 157 0.0 4.8 0.15 0.15 0.43 100 1011.9
20260507174518 13 156 0.0 4.8 0.13 0.13 0.41 100 1012.0
20260507174453 13 189 1.6 4.8 0.10 0.10 0.41 100 1011.8
20260507174436 13 44 1.6 4.8 0.10 0.10 0.38 100 1011.6